| time (UTC) | temp F | wind direction | speed knots | gust knots | rain 1hr in | rain 24hr in | rain mn in | humidity % | barometer mb |
| 20260502200920 | 63 | 293 | 6.1 | 16.5 | 0.00 | 0.00 | 0.00 | 39 | 1014.1 |
| 20260502200803 | 62 | 307 | 4.3 | 15.6 | 0.00 | 0.00 | 0.00 | 40 | 1014.1 |
| 20260502200727 | 62 | 283 | 7.0 | 15.6 | 0.00 | 0.00 | 0.00 | 38 | 1014.2 |
| 20260502200630 | 62 | 265 | 9.6 | 16.5 | 0.00 | 0.00 | 0.00 | 38 | 1014.2 |
| 20260502200513 | 62 | 285 | 10.4 | 16.5 | 0.00 | 0.00 | 0.00 | 38 | 1014.2 |
| 20260502200416 | 63 | 283 | 11.3 | 17.4 | 0.00 | 0.00 | 0.00 | 38 | 1014.2 |
| 20260502200304 | 63 | 273 | 11.3 | 17.4 | 0.00 | 0.00 | 0.00 | 39 | 1014.3 |
| 20260502200228 | 63 | 274 | 11.3 | 17.4 | 0.00 | 0.00 | 0.00 | 39 | 1014.3 |
| 20260502200130 | 63 | 286 | 11.3 | 17.4 | 0.00 | 0.00 | 0.00 | 41 | 1014.2 |
| 20260502200012 | 63 | 296 | 11.3 | 17.4 | 0.00 | 0.00 | 0.00 | 38 | 1014.3 |
| 20260502195916 | 63 | 273 | 12.2 | 17.4 | 0.00 | 0.00 | 0.00 | 39 | 1014.3 |
| 20260502195820 | 63 | 282 | 13.0 | 17.4 | 0.00 | 0.00 | 0.00 | 39 | 1014.3 |
| 20260502195743 | 63 | 279 | 13.0 | 17.4 | 0.00 | 0.00 | 0.00 | 42 | 1014.3 |
| 20260502195606 | 63 | 281 | 7.0 | 17.4 | 0.00 | 0.00 | 0.00 | 39 | 1014.2 |
| 20260502195515 | 63 | 304 | 5.2 | 17.4 | 0.00 | 0.00 | 0.00 | 40 | 1014.4 |
| 20260502195439 | 63 | 243 | 6.1 | 17.4 | 0.00 | 0.00 | 0.00 | 38 | 1014.3 |
| 20260502195342 | 63 | 278 | 7.8 | 17.4 | 0.00 | 0.00 | 0.00 | 39 | 1014.4 |
| 20260502195225 | 63 | 282 | 9.6 | 17.4 | 0.00 | 0.00 | 0.00 | 40 | 1014.4 |
| 20260502195108 | 63 | 277 | 9.6 | 17.4 | 0.00 | 0.00 | 0.00 | 43 | 1014.4 |
| 20260502195010 | 63 | 269 | 7.0 | 9.6 | 0.00 | 0.00 | 0.00 | 41 | 1014.4 |
| 20260502194914 | 62 | 270 | 7.0 | 9.6 | 0.00 | 0.00 | 0.00 | 39 | 1014.4 |
| 20260502194838 | 62 | 232 | 7.0 | 10.4 | 0.00 | 0.00 | 0.00 | 43 | 1014.4 |
| 20260502194706 | 62 | 270 | 7.8 | 10.4 | 0.00 | 0.00 | 0.00 | 41 | 1014.4 |
| 20260502194611 | 62 | 213 | 7.0 | 10.4 | 0.00 | 0.00 | 0.00 | 41 | 1014.4 |
| 20260502194513 | 62 | 290 | 6.1 | 9.6 | 0.00 | 0.00 | 0.00 | 43 | 1014.5 |
| 20260502194437 | 62 | 304 | 7.0 | 11.3 | 0.00 | 0.00 | 0.00 | 42 | 1014.4 |
| 20260502194320 | 62 | 234 | 7.0 | 12.2 | 0.00 | 0.00 | 0.00 | 38 | 1014.5 |
| 20260502194204 | 62 | 259 | 7.8 | 12.2 | 0.00 | 0.00 | 0.00 | 39 | 1014.6 |
| 20260502194132 | 62 | 239 | 7.0 | 12.2 | 0.00 | 0.00 | 0.00 | 40 | 1014.6 |
| 20260502194015 | 62 | 247 | 5.2 | 12.2 | 0.00 | 0.00 | 0.00 | 41 | 1014.6 |
| 20260502193919 | 61 | 215 | 3.5 | 13.0 | 0.00 | 0.00 | 0.00 | 44 | 1014.5 |
| 20260502193823 | 61 | 261 | 4.3 | 13.0 | 0.00 | 0.00 | 0.00 | 42 | 1014.7 |
| 20260502193706 | 61 | 262 | 7.8 | 22.6 | 0.00 | 0.00 | 0.00 | 39 | 1014.6 |
| 20260502193630 | 61 | 259 | 9.6 | 22.6 | 0.00 | 0.00 | 0.00 | 40 | 1014.6 |
| 20260502193513 | 61 | 282 | 8.7 | 22.6 | 0.00 | 0.00 | 0.00 | 40 | 1014.6 |
| 20260502193440 | 61 | 293 | 7.8 | 22.6 | 0.00 | 0.00 | 0.00 | 40 | 1014.7 |
| 20260502193342 | 62 | 302 | 8.7 | 22.6 | 0.00 | 0.00 | 0.00 | 42 | 1014.7 |
| 20260502193225 | 62 | 324 | 8.7 | 22.6 | 0.00 | 0.00 | 0.00 | 41 | 1014.7 |
| 20260502193107 | 62 | 313 | 10.4 | 22.6 | 0.00 | 0.00 | 0.00 | 43 | 1014.7 |
| 20260502193012 | 62 | 290 | 12.2 | 22.6 | 0.00 | 0.00 | 0.00 | 40 | 1014.8 |
| 20260502192915 | 62 | 314 | 11.3 | 22.6 | 0.00 | 0.00 | 0.00 | 39 | 1014.7 |
| 20260502192819 | 62 | 236 | 9.6 | 15.6 | 0.00 | 0.00 | 0.00 | 40 | 1014.6 |
| 20260502192728 | 62 | 196 | 7.8 | 13.9 | 0.00 | 0.00 | 0.00 | 39 | 1014.7 |
| 20260502192605 | 62 | 229 | 6.1 | 13.9 | 0.00 | 0.00 | 0.00 | 40 | 1014.8 |
| 20260502192508 | 62 | 238 | 7.0 | 13.9 | 0.00 | 0.00 | 0.00 | 38 | 1014.9 |
| 20260502192411 | 62 | 229 | 9.6 | 13.9 | 0.00 | 0.00 | 0.00 | 39 | 1014.9 |
| 20260502192315 | 62 | 252 | 10.4 | 13.9 | 0.00 | 0.00 | 0.00 | 39 | 1014.9 |
| 20260502192239 | 62 | 291 | 11.3 | 13.9 | 0.00 | 0.00 | 0.00 | 42 | 1014.9 |
| 20260502192104 | 62 | 275 | 8.7 | 13.9 | 0.00 | 0.00 | 0.00 | 40 | 1014.9 |
| 20260502192007 | 62 | 306 | 6.1 | 12.2 | 0.00 | 0.00 | 0.00 | 41 | 1015.0 |
| 20260502191911 | 62 | 309 | 6.1 | 12.2 | 0.00 | 0.00 | 0.00 | 41 | 1015.0 |
| 20260502191813 | 62 | 284 | 7.8 | 12.2 | 0.00 | 0.00 | 0.00 | 40 | 1015.1 |
| 20260502191717 | 62 | 286 | 9.6 | 12.2 | 0.00 | 0.00 | 0.00 | 39 | 1015.1 |
| 20260502191620 | 62 | 302 | 9.6 | 12.2 | 0.00 | 0.00 | 0.00 | 40 | 1015.1 |
| 20260502191543 | 62 | 292 | 9.6 | 14.8 | 0.00 | 0.00 | 0.00 | 40 | 1015.1 |
| 20260502191429 | 62 | 275 | 7.8 | 14.8 | 0.00 | 0.00 | 0.00 | 42 | 1015.0 |
| 20260502191304 | 62 | 289 | 6.1 | 14.8 | 0.00 | 0.00 | 0.00 | 40 | 1015.1 |
| 20260502191228 | 62 | 250 | 6.1 | 14.8 | 0.00 | 0.00 | 0.00 | 40 | 1015.1 |
| 20260502191104 | 61 | 317 | 6.1 | 14.8 | 0.00 | 0.00 | 0.00 | 41 | 1015.1 |
| 20260502191006 | 61 | 336 | 6.1 | 14.8 | 0.00 | 0.00 | 0.00 | 44 | 1015.2 |
| 20260502190930 | 61 | 286 | 8.7 | 14.8 | 0.00 | 0.00 | 0.00 | 41 | 1015.2 |
| 20260502190811 | 61 | 329 | 9.6 | 14.8 | 0.00 | 0.00 | 0.00 | 45 | 1015.3 |
| 20260502190719 | 61 | 309 | 8.7 | 14.8 | 0.00 | 0.00 | 0.00 | 40 | 1015.2 |
| 20260502190641 | 61 | 237 | 6.1 | 13.0 | 0.00 | 0.00 | 0.00 | 41 | 1015.3 |
| 20260502190524 | 61 | 267 | 7.0 | 13.0 | 0.00 | 0.00 | 0.00 | 39 | 1015.3 |
| 20260502190406 | 61 | 276 | 7.8 | 13.0 | 0.00 | 0.00 | 0.00 | 41 | 1015.3 |
| 20260502190330 | 60 | 288 | 7.0 | 13.0 | 0.00 | 0.00 | 0.00 | 40 | 1015.4 |
| 20260502190232 | 60 | 239 | 7.0 | 13.0 | 0.00 | 0.00 | 0.00 | 40 | 1015.3 |
| 20260502190114 | 60 | 256 | 7.0 | 13.0 | 0.00 | 0.00 | 0.00 | 41 | 1015.4 |
| 20260502190017 | 60 | 247 | 7.8 | 13.0 | 0.00 | 0.00 | 0.00 | 40 | 1015.4 |
| 20260502185926 | 60 | 272 | 8.7 | 13.0 | 0.00 | 0.00 | 0.00 | 41 | 1015.5 |
| 20260502185849 | 60 | 277 | 9.6 | 13.0 | 0.00 | 0.00 | 0.00 | 42 | 1015.4 |
| 20260502185704 | 60 | 312 | 7.0 | 12.2 | 0.00 | 0.00 | 0.00 | 41 | 1015.5 |
| 20260502185607 | 60 | 309 | 6.1 | 12.2 | 0.00 | 0.00 | 0.00 | 41 | 1015.5 |
| 20260502185510 | 60 | 266 | 7.0 | 12.2 | 0.00 | 0.00 | 0.00 | 40 | 1015.5 |
| 20260502185413 | 60 | 303 | 7.8 | 12.2 | 0.00 | 0.00 | 0.00 | 42 | 1015.5 |
| 20260502185319 | 60 | 306 | 8.7 | 13.0 | 0.00 | 0.00 | 0.00 | 40 | 1015.5 |
| 20260502185222 | 61 | 247 | 7.8 | 13.9 | 0.00 | 0.00 | 0.00 | 41 | 1015.5 |
| 20260502185126 | 61 | 243 | 4.3 | 13.9 | 0.00 | 0.00 | 0.00 | 43 | 1015.6 |
| 20260502185008 | 61 | 276 | 5.2 | 13.9 | 0.00 | 0.00 | 0.00 | 43 | 1015.6 |
| 20260502184911 | 60 | 251 | 7.8 | 13.9 | 0.00 | 0.00 | 0.00 | 40 | 1015.6 |
| 20260502184814 | 60 | 269 | 8.7 | 13.9 | 0.00 | 0.00 | 0.00 | 41 | 1015.6 |
| 20260502184717 | 60 | 282 | 8.7 | 13.9 | 0.00 | 0.00 | 0.00 | 42 | 1015.6 |
| 20260502184604 | 61 | 294 | 9.6 | 13.9 | 0.00 | 0.00 | 0.00 | 41 | 1015.7 |
| 20260502184527 | 61 | 300 | 8.7 | 13.9 | 0.00 | 0.00 | 0.00 | 41 | 1015.7 |
| 20260502184409 | 61 | 296 | 6.1 | 13.0 | 0.00 | 0.00 | 0.00 | 42 | 1015.6 |
| 20260502184312 | 61 | 274 | 5.2 | 13.0 | 0.00 | 0.00 | 0.00 | 41 | 1015.6 |
| 20260502184216 | 61 | 295 | 7.0 | 13.0 | 0.00 | 0.00 | 0.00 | 42 | 1015.7 |
| 20260502184118 | 61 | 290 | 7.8 | 13.0 | 0.00 | 0.00 | 0.00 | 42 | 1015.7 |
| 20260502184004 | 61 | 298 | 7.8 | 13.0 | 0.00 | 0.00 | 0.00 | 43 | 1015.8 |
| 20260502183927 | 60 | 259 | 6.1 | 13.0 | 0.00 | 0.00 | 0.00 | 41 | 1015.7 |
| 20260502183828 | 60 | 234 | 7.0 | 13.0 | 0.00 | 0.00 | 0.00 | 42 | 1015.7 |
| 20260502183704 | 60 | 262 | 7.8 | 13.0 | 0.00 | 0.00 | 0.00 | 40 | 1015.9 |
| 20260502183607 | 60 | 277 | 7.8 | 13.9 | 0.00 | 0.00 | 0.00 | 42 | 1015.8 |
| 20260502183510 | 60 | 279 | 7.0 | 15.6 | 0.00 | 0.00 | 0.00 | 44 | 1015.8 |
| 20260502183414 | 60 | 296 | 7.0 | 15.6 | 0.00 | 0.00 | 0.00 | 43 | 1015.9 |
| 20260502183340 | 60 | 286 | 8.7 | 15.6 | 0.00 | 0.00 | 0.00 | 42 | 1015.9 |
| 20260502183203 | 60 | 309 | 7.0 | 15.6 | 0.00 | 0.00 | 0.00 | 42 | 1015.9 |
| 20260502183029 | 60 | 287 | 9.6 | 15.6 | 0.00 | 0.00 | 0.00 | 39 | 1016.0 |
| 20260502182932 | 60 | 267 | 10.4 | 15.6 | 0.00 | 0.00 | 0.00 | 40 | 1015.9 |
| 20260502182814 | 60 | 269 | 11.3 | 15.6 | 0.00 | 0.00 | 0.00 | 42 | 1016.0 |
| 20260502182717 | 60 | 285 | 7.8 | 15.6 | 0.00 | 0.00 | 0.00 | 42 | 1016.0 |
| 20260502182604 | 60 | 295 | 4.3 | 13.9 | 0.00 | 0.00 | 0.00 | 42 | 1016.0 |
| 20260502182528 | 60 | 252 | 6.1 | 13.9 | 0.00 | 0.00 | 0.00 | 40 | 1015.9 |
| 20260502182451 | 60 | 254 | 7.0 | 13.9 | 0.00 | 0.00 | 0.00 | 43 | 1016.1 |
| 20260502182305 | 59 | 259 | 6.1 | 13.9 | 0.00 | 0.00 | 0.00 | 41 | 1016.1 |
| 20260502182209 | 59 | 283 | 7.0 | 13.9 | 0.00 | 0.00 | 0.00 | 41 | 1016.1 |
| 20260502182112 | 60 | 312 | 7.8 | 13.9 | 0.00 | 0.00 | 0.00 | 43 | 1016.1 |
| 20260502182036 | 60 | 293 | 9.6 | 13.9 | 0.00 | 0.00 | 0.00 | 43 | 1016.1 |
| 20260502181921 | 60 | 292 | 10.4 | 14.8 | 0.00 | 0.00 | 0.00 | 43 | 1016.1 |
| 20260502181824 | 60 | 329 | 10.4 | 15.6 | 0.00 | 0.00 | 0.00 | 41 | 1016.1 |
| 20260502181727 | 60 | 315 | 9.6 | 15.6 | 0.00 | 0.00 | 0.00 | 40 | 1016.2 |
| 20260502181629 | 60 | 294 | 7.8 | 15.6 | 0.00 | 0.00 | 0.00 | 40 | 1016.2 |
| 20260502181506 | 60 | 290 | 7.0 | 15.6 | 0.00 | 0.00 | 0.00 | 43 | 1016.2 |
| 20260502181428 | 60 | 302 | 6.1 | 15.6 | 0.00 | 0.00 | 0.00 | 43 | 1016.2 |
| 20260502181331 | 60 | 300 | 6.1 | 15.6 | 0.00 | 0.00 | 0.00 | 43 | 1016.3 |
| 20260502181233 | 59 | 286 | 9.6 | 15.6 | 0.00 | 0.00 | 0.00 | 44 | 1016.2 |
| 20260502181115 | 59 | 275 | 9.6 | 15.6 | 0.00 | 0.00 | 0.00 | 43 | 1016.2 |
| 20260502181021 | 59 | 279 | 7.8 | 15.6 | 0.00 | 0.00 | 0.00 | 43 | 1016.2 |
| 20260502180925 | 59 | 293 | 6.1 | 13.0 | 0.00 | 0.00 | 0.00 | 47 | 1016.3 |
| 20260502180827 | 59 | 279 | 6.1 | 13.0 | 0.00 | 0.00 | 0.00 | 45 | 1016.2 |
| 20260502180703 | 59 | 304 | 3.5 | 13.9 | 0.00 | 0.00 | 0.00 | 43 | 1016.2 |
| 20260502180607 | 58 | 276 | 2.6 | 13.9 | 0.00 | 0.00 | 0.00 | 46 | 1016.3 |
| 20260502180509 | 58 | 271 | 6.1 | 15.6 | 0.00 | 0.00 | 0.00 | 43 | 1016.3 |
| 20260502180432 | 58 | 270 | 9.6 | 15.6 | 0.00 | 0.00 | 0.00 | 42 | 1016.4 |
| 20260502180318 | 58 | 301 | 8.7 | 15.6 | 0.00 | 0.00 | 0.00 | 44 | 1016.4 |
| 20260502180221 | 58 | 311 | 7.0 | 15.6 | 0.00 | 0.00 | 0.00 | 41 | 1016.5 |
| 20260502180125 | 58 | 315 | 7.8 | 15.6 | 0.00 | 0.00 | 0.00 | 43 | 1016.5 |
| 20260502170513 | 57 | 302 | 7.0 | 13.9 | 0.00 | 0.00 | 0.00 | 43 | 1017.4 |
| 20260502170418 | 57 | 286 | 5.2 | 13.9 | 0.00 | 0.00 | 0.00 | 45 | 1017.4 |
| 20260502170304 | 57 | 9 | 2.6 | 11.3 | 0.00 | 0.00 | 0.00 | 44 | 1017.4 |
| 20260502170228 | 57 | 315 | 3.5 | 11.3 | 0.00 | 0.00 | 0.00 | 43 | 1017.5 |
| 20260502170105 | 56 | 288 | 4.3 | 13.9 | 0.00 | 0.00 | 0.00 | 43 | 1017.5 |
| 20260502164318 | 56 | 245 | 7.8 | 13.0 | 0.00 | 0.00 | 0.00 | 42 | 1017.7 |
| 20260502164221 | 56 | 319 | 7.8 | 13.9 | 0.00 | 0.00 | 0.00 | 43 | 1017.7 |
| 20260502164106 | 56 | 288 | 7.0 | 13.9 | 0.00 | 0.00 | 0.00 | 45 | 1017.7 |
| 20260502164030 | 56 | 307 | 5.2 | 13.9 | 0.00 | 0.00 | 0.00 | 45 | 1017.7 |
| 20260502163912 | 56 | 275 | 6.1 | 13.9 | 0.00 | 0.00 | 0.00 | 42 | 1017.8 |
| 20260502163816 | 56 | 298 | 7.0 | 13.9 | 0.00 | 0.00 | 0.00 | 43 | 1017.7 |
| 20260502163724 | 56 | 283 | 7.0 | 13.9 | 0.00 | 0.00 | 0.00 | 45 | 1017.8 |
| 20260502163649 | 56 | 332 | 7.8 | 13.9 | 0.00 | 0.00 | 0.00 | 45 | 1017.8 |
| 20260502163504 | 56 | 279 | 9.6 | 13.9 | 0.00 | 0.00 | 0.00 | 43 | 1017.7 |
| 20260502163408 | 56 | 293 | 9.6 | 13.9 | 0.00 | 0.00 | 0.00 | 43 | 1017.9 |
| 20260502163314 | 56 | 292 | 7.0 | 13.9 | 0.00 | 0.00 | 0.00 | 42 | 1017.9 |
| 20260502163217 | 56 | 275 | 8.7 | 13.9 | 0.00 | 0.00 | 0.00 | 43 | 1017.9 |
| 20260502163105 | 56 | 304 | 10.4 | 13.9 | 0.00 | 0.00 | 0.00 | 45 | 1017.9 |
| 20260502163028 | 56 | 288 | 9.6 | 13.0 | 0.00 | 0.00 | 0.00 | 45 | 1017.8 |
| 20260502162905 | 56 | 306 | 7.8 | 13.0 | 0.00 | 0.00 | 0.00 | 45 | 1017.9 |
| 20260502162809 | 56 | 298 | 7.0 | 13.9 | 0.00 | 0.00 | 0.00 | 43 | 1017.9 |
| 20260502162734 | 56 | 302 | 5.2 | 13.9 | 0.00 | 0.00 | 0.00 | 44 | 1017.9 |
| 20260502162634 | 56 | 333 | 4.3 | 13.9 | 0.00 | 0.00 | 0.00 | 44 | 1017.9 |
| 20260502162517 | 56 | 325 | 4.3 | 13.9 | 0.00 | 0.00 | 0.00 | 43 | 1018.0 |
| 20260502162442 | 56 | 335 | 5.2 | 13.9 | 0.00 | 0.00 | 0.00 | 43 | 1018.0 |
| 20260502162327 | 56 | 344 | 7.0 | 13.9 | 0.00 | 0.00 | 0.00 | 44 | 1018.0 |
| 20260502162205 | 56 | 360 | 9.6 | 13.9 | 0.00 | 0.00 | 0.00 | 43 | 1018.0 |
| 20260502162109 | 56 | 335 | 10.4 | 13.9 | 0.00 | 0.00 | 0.00 | 44 | 1018.0 |
| 20260502162014 | 56 | 311 | 10.4 | 13.9 | 0.00 | 0.00 | 0.00 | 45 | 1018.0 |
| 20260502161916 | 56 | 308 | 7.8 | 12.2 | 0.00 | 0.00 | 0.00 | 46 | 1018.0 |
| 20260502161817 | 56 | 302 | 7.0 | 11.3 | 0.00 | 0.00 | 0.00 | 44 | 1018.0 |
| 20260502161706 | 56 | 338 | 7.8 | 11.3 | 0.00 | 0.00 | 0.00 | 44 | 1018.1 |
| 20260502161629 | 56 | 315 | 7.0 | 12.2 | 0.00 | 0.00 | 0.00 | 44 | 1018.1 |
| 20260502161505 | 56 | 296 | 5.2 | 12.2 | 0.00 | 0.00 | 0.00 | 44 | 1018.1 |
| 20260502161410 | 56 | 262 | 7.0 | 12.2 | 0.00 | 0.00 | 0.00 | 44 | 1018.2 |
| 20260502161333 | 56 | 270 | 7.8 | 12.2 | 0.00 | 0.00 | 0.00 | 45 | 1018.2 |
| 20260502161217 | 56 | 300 | 7.0 | 12.2 | 0.00 | 0.00 | 0.00 | 47 | 1018.0 |
| 20260502161120 | 56 | 275 | 5.2 | 12.2 | 0.00 | 0.00 | 0.00 | 48 | 1018.2 |
| 20260502161008 | 56 | 285 | 7.0 | 12.2 | 0.00 | 0.00 | 0.00 | 46 | 1018.2 |
| 20260502160911 | 55 | 305 | 7.8 | 12.2 | 0.00 | 0.00 | 0.00 | 44 | 1018.2 |
| 20260502160815 | 55 | 330 | 7.8 | 12.2 | 0.00 | 0.00 | 0.00 | 45 | 1018.2 |
| 20260502160718 | 55 | 325 | 7.8 | 10.4 | 0.00 | 0.00 | 0.00 | 45 | 1018.2 |
| 20260502160622 | 55 | 316 | 7.0 | 13.0 | 0.00 | 0.00 | 0.00 | 46 | 1018.2 |
| 20260502160510 | 55 | 282 | 7.8 | 13.9 | 0.00 | 0.00 | 0.00 | 46 | 1018.2 |
| 20260502160434 | 55 | 274 | 7.0 | 13.9 | 0.00 | 0.00 | 0.00 | 45 | 1018.2 |
| 20260502160317 | 55 | 286 | 5.2 | 13.9 | 0.00 | 0.00 | 0.00 | 45 | 1018.3 |
| 20260502160222 | 55 | 299 | 5.2 | 13.9 | 0.00 | 0.00 | 0.00 | 46 | 1018.3 |
| 20260502160105 | 55 | 301 | 4.3 | 13.9 | 0.00 | 0.00 | 0.00 | 46 | 1018.3 |
| 20260502152313 | 54 | 292 | 8.7 | 11.3 | 0.00 | 0.00 | 0.00 | 48 | 1018.6 |
| 20260502152238 | 54 | 292 | 7.8 | 11.3 | 0.00 | 0.00 | 0.00 | 48 | 1018.6 |
| 20260502152044 | 54 | 360 | 4.3 | 10.4 | 0.00 | 0.00 | 0.00 | 49 | 1018.7 |
| 20260502151910 | 54 | 355 | 2.6 | 11.3 | 0.00 | 0.00 | 0.00 | 48 | 1018.6 |
| 20260502151815 | 54 | 345 | 2.6 | 12.2 | 0.00 | 0.00 | 0.00 | 49 | 1018.7 |
| 20260502151719 | 54 | 306 | 3.5 | 12.2 | 0.00 | 0.00 | 0.00 | 48 | 1018.7 |
| 20260502151643 | 54 | 348 | 5.2 | 12.2 | 0.00 | 0.00 | 0.00 | 50 | 1018.7 |
| 20260502151527 | 54 | 296 | 7.0 | 12.2 | 0.00 | 0.00 | 0.00 | 48 | 1018.8 |
| 20260502151404 | 54 | 307 | 6.1 | 12.2 | 0.00 | 0.00 | 0.00 | 48 | 1018.8 |
| 20260502151307 | 54 | 296 | 5.2 | 12.2 | 0.00 | 0.00 | 0.00 | 50 | 1018.7 |
| 20260502151216 | 54 | 323 | 6.1 | 12.2 | 0.00 | 0.00 | 0.00 | 47 | 1018.7 |
| 20260502151121 | 53 | 342 | 7.8 | 12.2 | 0.00 | 0.00 | 0.00 | 48 | 1018.7 |
| 20260502151005 | 53 | 355 | 6.1 | 12.2 | 0.00 | 0.00 | 0.00 | 48 | 1018.7 |
| 20260502150909 | 53 | 23 | 4.3 | 10.4 | 0.00 | 0.00 | 0.00 | 50 | 1018.8 |
| 20260502150813 | 53 | 340 | 6.1 | 10.4 | 0.00 | 0.00 | 0.00 | 47 | 1018.7 |
| 20260502150718 | 53 | 348 | 7.8 | 10.4 | 0.00 | 0.00 | 0.00 | 47 | 1018.7 |
| 20260502150627 | 53 | 323 | 7.0 | 10.4 | 0.00 | 0.00 | 0.00 | 48 | 1018.8 |
| 20260502150504 | 53 | 328 | 6.1 | 9.6 | 0.00 | 0.00 | 0.00 | 48 | 1018.8 |
| 20260502150408 | 53 | 301 | 7.8 | 9.6 | 0.00 | 0.00 | 0.00 | 49 | 1018.7 |
| 20260502150332 | 53 | 300 | 7.0 | 9.6 | 0.00 | 0.00 | 0.00 | 48 | 1018.7 |
| 20260502150215 | 53 | 279 | 6.1 | 9.6 | 0.00 | 0.00 | 0.00 | 49 | 1018.8 |
| 20260502150120 | 53 | 290 | 7.8 | 9.6 | 0.00 | 0.00 | 0.00 | 49 | 1018.8 |
| 20260502140129 | 50 | 318 | 5.2 | 7.8 | 0.00 | 0.00 | 0.00 | 54 | 1019.1 |
| 20260502130706 | 45 | 321 | 3.5 | 7.8 | 0.00 | 0.00 | 0.00 | 65 | 1019.2 |
| 20260502130611 | 44 | 300 | 3.5 | 7.8 | 0.00 | 0.00 | 0.00 | 65 | 1019.1 |
| 20260502130515 | 44 | 323 | 3.5 | 7.8 | 0.00 | 0.00 | 0.00 | 66 | 1019.2 |
| 20260502130440 | 44 | 319 | 4.3 | 7.8 | 0.00 | 0.00 | 0.00 | 66 | 1019.2 |
| 20260502130307 | 44 | 318 | 5.2 | 7.8 | 0.00 | 0.00 | 0.00 | 67 | 1019.3 |
| 20260502130211 | 44 | 304 | 3.5 | 7.0 | 0.00 | 0.00 | 0.00 | 68 | 1019.2 |
| 20260502130116 | 44 | 300 | 2.6 | 7.0 | 0.00 | 0.00 | 0.00 | 68 | 1019.2 |
| 20260502123814 | 41 | 316 | 3.5 | 7.0 | 0.00 | 0.00 | 0.00 | 73 | 1019.2 |
| 20260502123737 | 41 | 310 | 3.5 | 7.0 | 0.00 | 0.00 | 0.00 | 74 | 1019.3 |
| 20260502123624 | 41 | 319 | 2.6 | 7.0 | 0.00 | 0.00 | 0.00 | 74 | 1019.3 |
| 20260502123507 | 41 | 313 | 2.6 | 7.0 | 0.00 | 0.00 | 0.00 | 74 | 1019.3 |
| 20260502123410 | 41 | 306 | 3.5 | 7.0 | 0.00 | 0.00 | 0.00 | 74 | 1019.3 |
| 20260502123333 | 41 | 300 | 3.5 | 7.0 | 0.00 | 0.00 | 0.00 | 75 | 1019.4 |
| 20260502123216 | 40 | 290 | 3.5 | 5.2 | 0.00 | 0.00 | 0.00 | 75 | 1019.3 |
| 20260502123119 | 40 | 311 | 3.5 | 5.2 | 0.00 | 0.00 | 0.00 | 76 | 1019.3 |
| 20260502123043 | 40 | 306 | 2.6 | 7.0 | 0.00 | 0.00 | 0.00 | 76 | 1019.2 |
| 20260502122907 | 40 | 313 | 3.5 | 7.0 | 0.00 | 0.00 | 0.00 | 77 | 1019.2 |
| 20260502122814 | 40 | 332 | 3.5 | 7.0 | 0.00 | 0.00 | 0.00 | 77 | 1019.2 |
| 20260502122718 | 40 | 302 | 3.5 | 7.0 | 0.00 | 0.00 | 0.00 | 77 | 1019.2 |
| 20260502122642 | 40 | 292 | 3.5 | 7.0 | 0.00 | 0.00 | 0.00 | 77 | 1019.3 |
| 20260502122504 | 39 | 304 | 3.5 | 7.0 | 0.00 | 0.00 | 0.00 | 78 | 1019.2 |
| 20260502122427 | 39 | 310 | 3.5 | 7.0 | 0.00 | 0.00 | 0.00 | 78 | 1019.2 |
| 20260502122306 | 39 | 338 | 3.5 | 7.0 | 0.00 | 0.00 | 0.00 | 78 | 1019.2 |
| 20260502122212 | 39 | 294 | 3.5 | 7.0 | 0.00 | 0.00 | 0.00 | 79 | 1019.2 |
| 20260502122117 | 39 | 298 | 2.6 | 4.3 | 0.00 | 0.00 | 0.00 | 80 | 1019.2 |
| 20260502122019 | 39 | 306 | 2.6 | 4.3 | 0.00 | 0.00 | 0.00 | 80 | 1019.2 |
| 20260502121903 | 39 | 308 | 2.6 | 4.3 | 0.00 | 0.00 | 0.00 | 81 | 1019.2 |
| 20260502121827 | 38 | 298 | 2.6 | 4.3 | 0.00 | 0.00 | 0.00 | 81 | 1019.2 |
| 20260502121704 | 38 | 311 | 3.5 | 4.3 | 0.00 | 0.00 | 0.00 | 81 | 1019.2 |
| 20260502121629 | 38 | 302 | 2.6 | 4.3 | 0.00 | 0.00 | 0.00 | 82 | 1019.2 |
| 20260502121516 | 38 | 280 | 2.6 | 4.3 | 0.00 | 0.00 | 0.00 | 82 | 1019.2 |
| 20260502121440 | 38 | 316 | 2.6 | 4.3 | 0.00 | 0.00 | 0.00 | 83 | 1019.2 |
| 20260502121322 | 38 | 288 | 2.6 | 3.5 | 0.00 | 0.00 | 0.00 | 83 | 1019.1 |
| 20260502121227 | 37 | 299 | 2.6 | 4.3 | 0.00 | 0.00 | 0.00 | 83 | 1019.1 |
| 20260502121130 | 37 | 294 | 2.6 | 4.3 | 0.00 | 0.00 | 0.00 | 84 | 1019.2 |
| 20260502121031 | 37 | 292 | 2.6 | 4.3 | 0.00 | 0.00 | 0.00 | 84 | 1019.1 |
| 20260502120935 | 37 | 302 | 2.6 | 4.3 | 0.00 | 0.00 | 0.00 | 84 | 1019.1 |
| 20260502120818 | 37 | 302 | 2.6 | 4.3 | 0.00 | 0.00 | 0.00 | 85 | 1019.1 |
| 20260502120727 | 37 | 298 | 2.6 | 4.3 | 0.00 | 0.00 | 0.00 | 85 | 1019.1 |
| 20260502120604 | 36 | 297 | 2.6 | 4.3 | 0.00 | 0.00 | 0.00 | 86 | 1019.1 |
| 20260502120527 | 36 | 295 | 2.6 | 4.3 | 0.00 | 0.00 | 0.00 | 86 | 1019.1 |
| 20260502120403 | 36 | 296 | 2.6 | 4.3 | 0.00 | 0.00 | 0.00 | 87 | 1019.2 |
| 20260502120306 | 36 | 288 | 2.6 | 3.5 | 0.00 | 0.00 | 0.00 | 88 | 1019.1 |
| 20260502120210 | 36 | 303 | 2.6 | 3.5 | 0.00 | 0.00 | 0.00 | 88 | 1019.1 |
| 20260502120112 | 35 | 304 | 2.6 | 3.5 | 0.00 | 0.00 | 0.00 | 88 | 1019.1 |
| 20260502115905 | 35 | 298 | 1.7 | 3.5 | 0.00 | 0.00 | 0.00 | 89 | 1019.0 |
| 20260502115809 | 35 | 298 | 2.6 | 3.5 | 0.00 | 0.00 | 0.00 | 89 | 1019.1 |
| 20260502115713 | 35 | 297 | 2.6 | 3.5 | 0.00 | 0.00 | 0.00 | 90 | 1019.1 |
| 20260502115616 | 34 | 296 | 2.6 | 4.3 | 0.00 | 0.00 | 0.00 | 90 | 1019.1 |
| 20260502115505 | 34 | 300 | 1.7 | 4.3 | 0.00 | 0.00 | 0.00 | 90 | 1019.1 |
| 20260502115430 | 34 | 300 | 1.7 | 4.3 | 0.00 | 0.00 | 0.00 | 90 | 1019.2 |
| 20260502115306 | 34 | 300 | 2.6 | 4.3 | 0.00 | 0.00 | 0.00 | 91 | 1019.1 |
| 20260502115230 | 34 | 296 | 2.6 | 4.3 | 0.00 | 0.00 | 0.00 | 91 | 1019.1 |
| 20260502115106 | 33 | 296 | 2.6 | 4.3 | 0.00 | 0.00 | 0.00 | 91 | 1019.2 |
| 20260502115010 | 33 | 296 | 2.6 | 4.3 | 0.00 | 0.00 | 0.00 | 91 | 1019.1 |
| 20260502114914 | 33 | 295 | 2.6 | 4.3 | 0.00 | 0.00 | 0.00 | 91 | 1019.1 |
| 20260502114821 | 33 | 296 | 1.7 | 4.3 | 0.00 | 0.00 | 0.00 | 91 | 1019.1 |
| 20260502114744 | 33 | 282 | 1.7 | 2.6 | 0.00 | 0.00 | 0.00 | 91 | 1019.1 |
| 20260502114626 | 32 | 282 | 1.7 | 2.6 | 0.00 | 0.00 | 0.00 | 91 | 1019.1 |
| 20260502114406 | 32 | 282 | 1.7 | 2.6 | 0.00 | 0.00 | 0.00 | 91 | 1019.1 |
| 20260502114310 | 32 | 283 | 1.7 | 2.6 | 0.00 | 0.00 | 0.00 | 91 | 1019.1 |
| 20260502114217 | 32 | 283 | 1.7 | 2.6 | 0.00 | 0.00 | 0.00 | 91 | 1019.1 |
| 20260502114119 | 31 | 283 | 1.7 | 2.6 | 0.00 | 0.00 | 0.00 | 91 | 1019.1 |
| 20260502114022 | 31 | 283 | 1.7 | 2.6 | 0.00 | 0.00 | 0.00 | 91 | 1019.2 |
| 20260502113925 | 31 | 283 | 1.7 | 2.6 | 0.00 | 0.00 | 0.00 | 91 | 1019.2 |
| 20260502113807 | 31 | 283 | 1.7 | 2.6 | 0.00 | 0.00 | 0.00 | 91 | 1019.1 |
| 20260502113712 | 31 | 283 | 1.7 | 2.6 | 0.00 | 0.00 | 0.00 | 91 | 1019.2 |
| 20260502113614 | 31 | 282 | 1.7 | 2.6 | 0.00 | 0.00 | 0.00 | 91 | 1019.1 |
| 20260502113521 | 31 | 282 | 1.7 | 2.6 | 0.00 | 0.00 | 0.00 | 91 | 1019.1 |
| 20260502113424 | 30 | 282 | 1.7 | 2.6 | 0.00 | 0.00 | 0.00 | 91 | 1019.2 |
| 20260502113308 | 30 | 284 | 1.7 | 2.6 | 0.00 | 0.00 | 0.00 | 91 | 1019.1 |
| 20260502113212 | 30 | 284 | 1.7 | 2.6 | 0.00 | 0.00 | 0.00 | 91 | 1019.1 |
| 20260502113114 | 30 | 284 | 1.7 | 2.6 | 0.00 | 0.00 | 0.00 | 91 | 1019.1 |
| 20260502113038 | 30 | 284 | 1.7 | 2.6 | 0.00 | 0.00 | 0.00 | 90 | 1019.1 |
| 20260502112917 | 30 | 284 | 1.7 | 2.6 | 0.00 | 0.00 | 0.00 | 90 | 1019.1 |
| 20260502112821 | 30 | 284 | 1.7 | 2.6 | 0.00 | 0.00 | 0.00 | 90 | 1019.1 |
| 20260502112721 | 30 | 284 | 1.7 | 2.6 | 0.00 | 0.00 | 0.00 | 90 | 1019.1 |
| 20260502112622 | 29 | 284 | 1.7 | 2.6 | 0.00 | 0.00 | 0.00 | 90 | 1019.1 |
| 20260502112543 | 29 | 284 | 1.7 | 2.6 | 0.00 | 0.00 | 0.00 | 90 | 1019.0 |
| 20260502112422 | 29 | 284 | 1.7 | 2.6 | 0.00 | 0.00 | 0.00 | 90 | 1019.1 |
| 20260502112323 | 29 | 284 | 1.7 | 3.5 | 0.00 | 0.00 | 0.00 | 89 | 1019.0 |
| 20260502112244 | 29 | 284 | 1.7 | 3.5 | 0.00 | 0.00 | 0.00 | 89 | 1019.1 |
| 20260502112107 | 29 | 284 | 1.7 | 3.5 | 0.00 | 0.00 | 0.00 | 89 | 1019.0 |
| 20260502112011 | 29 | 284 | 1.7 | 3.5 | 0.00 | 0.00 | 0.00 | 90 | 1019.1 |
| 20260502111912 | 29 | 284 | 1.7 | 3.5 | 0.00 | 0.00 | 0.00 | 90 | 1019.0 |
| 20260502111812 | 29 | 284 | 0.9 | 3.5 | 0.00 | 0.00 | 0.00 | 90 | 1019.0 |
| 20260502111713 | 29 | 283 | 1.7 | 3.5 | 0.00 | 0.00 | 0.00 | 90 | 1019.0 |
| 20260502111634 | 29 | 283 | 1.7 | 3.5 | 0.00 | 0.00 | 0.00 | 89 | 1019.0 |
| 20260502111517 | 29 | 283 | 1.7 | 3.5 | 0.00 | 0.00 | 0.00 | 89 | 1019.0 |
| 20260502111425 | 29 | 283 | 1.7 | 2.6 | 0.00 | 0.00 | 0.00 | 89 | 1019.0 |
| 20260502111350 | 29 | 282 | 1.7 | 2.6 | 0.00 | 0.00 | 0.00 | 89 | 1019.0 |
| 20260502111205 | 29 | 282 | 0.9 | 2.6 | 0.00 | 0.00 | 0.00 | 89 | 1018.9 |
| 20260502111130 | 29 | 282 | 0.9 | 2.6 | 0.00 | 0.00 | 0.00 | 89 | 1018.9 |
| 20260502111006 | 29 | 282 | 0.0 | 2.6 | 0.00 | 0.00 | 0.00 | 89 | 1018.9 |
| 20260502110930 | 29 | 282 | 0.0 | 2.6 | 0.00 | 0.00 | 0.00 | 89 | 1018.9 |
| 20260502110815 | 29 | 282 | 0.0 | 2.6 | 0.00 | 0.00 | 0.00 | 89 | 1018.8 |
| 20260502110703 | 29 | 282 | 0.9 | 2.6 | 0.00 | 0.00 | 0.00 | 89 | 1018.9 |
| 20260502110626 | 29 | 282 | 0.9 | 2.6 | 0.00 | 0.00 | 0.00 | 89 | 1018.8 |
| 20260502110503 | 29 | 282 | 0.9 | 2.6 | 0.00 | 0.00 | 0.00 | 89 | 1018.9 |
| 20260502110428 | 29 | 282 | 1.7 | 2.6 | 0.00 | 0.00 | 0.00 | 89 | 1018.9 |
| 20260502110309 | 29 | 282 | 0.9 | 2.6 | 0.00 | 0.00 | 0.00 | 89 | 1019.0 |
| 20260502110212 | 29 | 282 | 1.7 | 2.6 | 0.00 | 0.00 | 0.00 | 89 | 1019.0 |
| 20260502110118 | 29 | 282 | 1.7 | 2.6 | 0.00 | 0.00 | 0.00 | 89 | 1019.0 |
| 20260502110005 | 29 | 282 | 1.7 | 2.6 | 0.00 | 0.00 | 0.00 | 89 | 1019.0 |
| 20260502105929 | 29 | 282 | 1.7 | 1.7 | 0.00 | 0.00 | 0.00 | 89 | 1019.0 |
| 20260502105805 | 29 | 282 | 0.9 | 1.7 | 0.00 | 0.00 | 0.00 | 89 | 1018.9 |
| 20260502105710 | 29 | 282 | 0.9 | 1.7 | 0.00 | 0.00 | 0.00 | 89 | 1019.0 |
| 20260502105614 | 29 | 282 | 0.9 | 1.7 | 0.00 | 0.00 | 0.00 | 89 | 1018.9 |
| 20260502105519 | 29 | 282 | 0.0 | 1.7 | 0.00 | 0.00 | 0.00 | 89 | 1018.9 |
| 20260502105407 | 29 | 282 | 0.0 | 0.9 | 0.00 | 0.00 | 0.00 | 89 | 1018.9 |
| 20260502105332 | 29 | 282 | 0.0 | 0.9 | 0.00 | 0.00 | 0.00 | 89 | 1019.0 |
| 20260502105216 | 29 | 282 | 0.0 | 0.0 | 0.00 | 0.00 | 0.00 | 88 | 1019.0 |
| 20260502105120 | 29 | 282 | 0.0 | 0.9 | 0.00 | 0.00 | 0.00 | 88 | 1019.0 |
| 20260502105024 | 29 | 282 | 0.0 | 0.9 | 0.00 | 0.00 | 0.00 | 88 | 1019.0 |
| 20260502104928 | 29 | 282 | 0.0 | 0.9 | 0.00 | 0.00 | 0.00 | 88 | 1018.9 |
| 20260502104811 | 29 | 282 | 0.0 | 0.9 | 0.00 | 0.00 | 0.00 | 88 | 1018.9 |
| 20260502104720 | 29 | 282 | 0.0 | 1.7 | 0.00 | 0.00 | 0.00 | 88 | 1019.0 |
| 20260502104604 | 29 | 282 | 0.0 | 1.7 | 0.00 | 0.00 | 0.00 | 88 | 1019.0 |
| 20260502104508 | 29 | 282 | 0.0 | 1.7 | 0.00 | 0.00 | 0.00 | 88 | 1019.0 |
| 20260502104411 | 29 | 282 | 0.0 | 1.7 | 0.00 | 0.00 | 0.00 | 88 | 1018.9 |
| 20260502104315 | 30 | 282 | 0.0 | 1.7 | 0.00 | 0.00 | 0.00 | 88 | 1019.0 |
| 20260502104204 | 30 | 282 | 0.0 | 1.7 | 0.00 | 0.00 | 0.00 | 88 | 1019.0 |
| 20260502104109 | 30 | 282 | 0.9 | 1.7 | 0.00 | 0.00 | 0.00 | 88 | 1019.0 |
| 20260502104014 | 30 | 282 | 0.9 | 1.7 | 0.00 | 0.00 | 0.00 | 88 | 1019.0 |
| 20260502103936 | 30 | 282 | 0.9 | 1.7 | 0.00 | 0.00 | 0.00 | 88 | 1019.0 |
| 20260502103817 | 30 | 282 | 0.9 | 1.7 | 0.00 | 0.00 | 0.00 | 88 | 1019.0 |
| 20260502103739 | 30 | 282 | 0.9 | 1.7 | 0.00 | 0.00 | 0.00 | 88 | 1018.9 |
| 20260502103639 | 30 | 282 | 0.9 | 1.7 | 0.00 | 0.00 | 0.00 | 88 | 1019.0 |
| 20260502103520 | 30 | 282 | 0.9 | 1.7 | 0.00 | 0.00 | 0.00 | 88 | 1019.0 |
| 20260502103442 | 30 | 282 | 0.9 | 1.7 | 0.00 | 0.00 | 0.00 | 88 | 1019.1 |
| 20260502103306 | 30 | 282 | 0.9 | 1.7 | 0.00 | 0.00 | 0.00 | 88 | 1019.1 |
| 20260502103207 | 30 | 282 | 0.9 | 1.7 | 0.00 | 0.00 | 0.00 | 88 | 1019.1 |
| 20260502103108 | 30 | 282 | 0.9 | 1.7 | 0.00 | 0.00 | 0.00 | 88 | 1019.1 |
| 20260502103010 | 30 | 282 | 0.0 | 0.9 | 0.00 | 0.00 | 0.00 | 88 | 1019.1 |
| 20260502102912 | 30 | 282 | 0.0 | 1.7 | 0.00 | 0.00 | 0.00 | 88 | 1019.1 |
| 20260502102814 | 30 | 282 | 0.0 | 1.7 | 0.00 | 0.00 | 0.00 | 88 | 1019.1 |
| 20260502102740 | 30 | 282 | 0.0 | 1.7 | 0.00 | 0.00 | 0.00 | 88 | 1019.0 |
| 20260502102638 | 30 | 282 | 0.0 | 1.7 | 0.00 | 0.00 | 0.00 | 88 | 1019.1 |
| 20260502102519 | 30 | 282 | 0.0 | 1.7 | 0.00 | 0.00 | 0.00 | 88 | 1019.0 |
| 20260502102420 | 30 | 282 | 0.9 | 1.7 | 0.00 | 0.00 | 0.00 | 88 | 1019.0 |
| 20260502102322 | 30 | 282 | 0.9 | 1.7 | 0.00 | 0.00 | 0.00 | 88 | 1019.0 |
| 20260502102223 | 30 | 282 | 0.9 | 1.7 | 0.00 | 0.00 | 0.00 | 88 | 1019.0 |
| 20260502102144 | 30 | 282 | 0.9 | 1.7 | 0.00 | 0.00 | 0.00 | 88 | 1019.1 |
| 20260502102045 | 30 | 282 | 0.9 | 1.7 | 0.00 | 0.00 | 0.00 | 88 | 1019.1 |
| 20260502101909 | 30 | 282 | 0.9 | 1.7 | 0.00 | 0.00 | 0.00 | 87 | 1019.0 |
| 20260502101809 | 30 | 282 | 0.9 | 1.7 | 0.00 | 0.00 | 0.00 | 87 | 1019.1 |
| 20260502101710 | 31 | 282 | 0.9 | 1.7 | 0.00 | 0.00 | 0.00 | 87 | 1019.0 |
| 20260502101631 | 31 | 282 | 0.9 | 1.7 | 0.00 | 0.00 | 0.00 | 87 | 1019.0 |
| 20260502101552 | 31 | 282 | 0.9 | 1.7 | 0.00 | 0.00 | 0.00 | 87 | 1019.0 |
| 20260502101406 | 31 | 282 | 0.9 | 1.7 | 0.00 | 0.00 | 0.00 | 88 | 1019.0 |
| 20260502101310 | 31 | 282 | 0.9 | 1.7 | 0.00 | 0.00 | 0.00 | 88 | 1019.0 |
| 20260502101218 | 31 | 282 | 0.0 | 1.7 | 0.00 | 0.00 | 0.00 | 88 | 1018.9 |
| 20260502101103 | 31 | 282 | 0.9 | 1.7 | 0.00 | 0.00 | 0.00 | 88 | 1019.0 |
| 20260502101007 | 31 | 282 | 0.9 | 1.7 | 0.00 | 0.00 | 0.00 | 88 | 1019.0 |
| 20260502100911 | 31 | 282 | 0.9 | 1.7 | 0.00 | 0.00 | 0.00 | 88 | 1019.0 |
| 20260502100816 | 31 | 282 | 0.9 | 1.7 | 0.00 | 0.00 | 0.00 | 88 | 1019.0 |
| 20260502100704 | 31 | 282 | 0.9 | 1.7 | 0.00 | 0.00 | 0.00 | 88 | 1019.0 |
| 20260502100629 | 31 | 282 | 0.9 | 1.7 | 0.00 | 0.00 | 0.00 | 88 | 1019.0 |
| 20260502100512 | 31 | 282 | 0.9 | 1.7 | 0.00 | 0.00 | 0.00 | 88 | 1019.0 |
| 20260502100416 | 31 | 282 | 0.9 | 1.7 | 0.00 | 0.00 | 0.00 | 88 | 1019.0 |
| 20260502100320 | 31 | 282 | 0.0 | 1.7 | 0.00 | 0.00 | 0.00 | 88 | 1019.0 |
| 20260502100205 | 31 | 282 | 0.0 | 1.7 | 0.00 | 0.00 | 0.00 | 88 | 1019.0 |
| 20260502100110 | 31 | 282 | 0.0 | 1.7 | 0.00 | 0.00 | 0.00 | 88 | 1018.9 |
| 20260502091513 | 32 | 283 | 0.0 | 1.7 | 0.00 | 0.00 | 0.00 | 86 | 1018.9 |
| 20260502091437 | 32 | 283 | 0.9 | 1.7 | 0.00 | 0.00 | 0.00 | 86 | 1018.7 |
| 20260502091305 | 32 | 283 | 1.7 | 1.7 | 0.00 | 0.00 | 0.00 | 86 | 1018.9 |
| 20260502091228 | 32 | 283 | 1.7 | 1.7 | 0.00 | 0.00 | 0.00 | 87 | 1018.8 |
| 20260502091106 | 32 | 283 | 1.7 | 1.7 | 0.00 | 0.00 | 0.00 | 88 | 1018.8 |
| 20260502091011 | 32 | 283 | 0.9 | 1.7 | 0.00 | 0.00 | 0.00 | 88 | 1018.8 |
| 20260502090934 | 32 | 283 | 0.9 | 1.7 | 0.00 | 0.00 | 0.00 | 88 | 1018.9 |
| 20260502090816 | 32 | 283 | 0.0 | 1.7 | 0.00 | 0.00 | 0.00 | 88 | 1018.8 |
| 20260502090721 | 32 | 282 | 0.0 | 1.7 | 0.00 | 0.00 | 0.00 | 88 | 1018.8 |
| 20260502090609 | 32 | 282 | 0.0 | 1.7 | 0.00 | 0.00 | 0.00 | 88 | 1018.8 |
| 20260502090514 | 32 | 282 | 0.0 | 1.7 | 0.00 | 0.00 | 0.00 | 88 | 1018.8 |
| 20260502090418 | 32 | 282 | 0.0 | 1.7 | 0.00 | 0.00 | 0.00 | 88 | 1018.8 |
| 20260502090302 | 32 | 282 | 0.9 | 1.7 | 0.00 | 0.00 | 0.00 | 88 | 1018.8 |
| 20260502090207 | 32 | 282 | 0.9 | 1.7 | 0.00 | 0.00 | 0.00 | 87 | 1018.8 |
| 20260502090131 | 32 | 282 | 0.9 | 1.7 | 0.00 | 0.00 | 0.00 | 87 | 1018.7 |
| 20260502071524 | 35 | 281 | 1.7 | 2.6 | 0.00 | 0.00 | 0.00 | 85 | 1018.9 |
| 20260502071408 | 35 | 281 | 1.7 | 2.6 | 0.00 | 0.00 | 0.00 | 85 | 1018.9 |
| 20260502071313 | 35 | 281 | 1.7 | 2.6 | 0.00 | 0.00 | 0.00 | 85 | 1019.0 |
| 20260502071218 | 35 | 281 | 1.7 | 2.6 | 0.00 | 0.00 | 0.00 | 85 | 1019.0 |
| 20260502071143 | 35 | 281 | 1.7 | 1.7 | 0.00 | 0.00 | 0.00 | 85 | 1019.0 |
| 20260502071027 | 35 | 281 | 1.7 | 1.7 | 0.00 | 0.00 | 0.00 | 85 | 1019.0 |
| 20260502070913 | 35 | 281 | 1.7 | 1.7 | 0.00 | 0.00 | 0.00 | 85 | 1018.9 |
| 20260502070818 | 35 | 281 | 1.7 | 1.7 | 0.00 | 0.00 | 0.00 | 86 | 1019.0 |
| 20260502070722 | 35 | 281 | 1.7 | 1.7 | 0.00 | 0.00 | 0.00 | 86 | 1019.0 |
| 20260502070606 | 35 | 281 | 1.7 | 1.7 | 0.00 | 0.00 | 0.00 | 86 | 1019.0 |
| 20260502070511 | 35 | 281 | 0.9 | 1.7 | 0.00 | 0.00 | 0.00 | 86 | 1018.9 |
| 20260502070416 | 35 | 281 | 1.7 | 1.7 | 0.00 | 0.00 | 0.00 | 86 | 1019.1 |
| 20260502070304 | 35 | 281 | 1.7 | 1.7 | 0.00 | 0.00 | 0.00 | 86 | 1019.0 |
| 20260502070228 | 35 | 281 | 1.7 | 1.7 | 0.00 | 0.00 | 0.00 | 86 | 1019.0 |
| 20260502070105 | 35 | 281 | 0.9 | 2.6 | 0.00 | 0.00 | 0.00 | 86 | 1019.0 |
| 20260502070010 | 35 | 281 | 1.7 | 2.6 | 0.00 | 0.00 | 0.00 | 86 | 1019.0 |
| 20260502065915 | 35 | 281 | 1.7 | 2.6 | 0.00 | 0.00 | 0.00 | 86 | 1019.0 |
| 20260502065819 | 35 | 281 | 1.7 | 2.6 | 0.00 | 0.00 | 0.00 | 86 | 1019.1 |
| 20260502065708 | 35 | 281 | 1.7 | 2.6 | 0.00 | 0.00 | 0.00 | 86 | 1019.1 |
| 20260502065613 | 35 | 281 | 1.7 | 2.6 | 0.00 | 0.00 | 0.00 | 86 | 1019.1 |
| 20260502065518 | 35 | 281 | 1.7 | 2.6 | 0.00 | 0.00 | 0.00 | 86 | 1019.1 |
| 20260502065422 | 35 | 281 | 1.7 | 2.6 | 0.00 | 0.00 | 0.00 | 85 | 1019.0 |
| 20260502065327 | 35 | 281 | 1.7 | 2.6 | 0.00 | 0.00 | 0.00 | 86 | 1019.1 |
| 20260502065209 | 35 | 281 | 1.7 | 2.6 | 0.00 | 0.00 | 0.00 | 86 | 1019.1 |
| 20260502065117 | 35 | 281 | 1.7 | 2.6 | 0.00 | 0.00 | 0.00 | 86 | 1019.1 |
| 20260502065021 | 35 | 281 | 1.7 | 2.6 | 0.00 | 0.00 | 0.00 | 86 | 1019.1 |
| 20260502064906 | 35 | 281 | 1.7 | 2.6 | 0.00 | 0.00 | 0.00 | 86 | 1019.1 |
| 20260502064810 | 35 | 281 | 1.7 | 2.6 | 0.00 | 0.00 | 0.00 | 86 | 1019.0 |
| 20260502064714 | 35 | 281 | 1.7 | 2.6 | 0.00 | 0.00 | 0.00 | 86 | 1019.1 |
| 20260502064635 | 35 | 281 | 1.7 | 2.6 | 0.00 | 0.00 | 0.00 | 86 | 1019.1 |
| 20260502064516 | 35 | 281 | 1.7 | 2.6 | 0.00 | 0.00 | 0.00 | 86 | 1019.0 |
| 20260502064424 | 35 | 281 | 1.7 | 2.6 | 0.00 | 0.00 | 0.00 | 86 | 1019.0 |
| 20260502064327 | 35 | 281 | 1.7 | 2.6 | 0.00 | 0.00 | 0.00 | 86 | 1019.0 |
| 20260502064204 | 35 | 281 | 0.9 | 2.6 | 0.00 | 0.00 | 0.00 | 86 | 1018.9 |
| 20260502064128 | 35 | 281 | 0.9 | 2.6 | 0.00 | 0.00 | 0.00 | 86 | 1019.0 |
| 20260502064012 | 35 | 281 | 0.9 | 2.6 | 0.00 | 0.00 | 0.00 | 86 | 1019.0 |
| 20260502063915 | 35 | 281 | 1.7 | 3.5 | 0.00 | 0.00 | 0.00 | 85 | 1019.0 |
| 20260502063803 | 35 | 281 | 1.7 | 3.5 | 0.00 | 0.00 | 0.00 | 85 | 1019.1 |
| 20260502063728 | 35 | 281 | 1.7 | 3.5 | 0.00 | 0.00 | 0.00 | 85 | 1019.0 |
| 20260502063604 | 35 | 281 | 1.7 | 3.5 | 0.00 | 0.00 | 0.00 | 85 | 1019.0 |
| 20260502063529 | 35 | 281 | 1.7 | 3.5 | 0.00 | 0.00 | 0.00 | 85 | 1019.0 |
| 20260502063405 | 35 | 281 | 1.7 | 3.5 | 0.00 | 0.00 | 0.00 | 85 | 1019.1 |
| 20260502063328 | 35 | 281 | 1.7 | 3.5 | 0.00 | 0.00 | 0.00 | 85 | 1019.0 |
| 20260502063204 | 35 | 281 | 1.7 | 3.5 | 0.00 | 0.00 | 0.00 | 85 | 1019.1 |
| 20260502063112 | 35 | 281 | 1.7 | 3.5 | 0.00 | 0.00 | 0.00 | 85 | 1019.1 |
| 20260502063018 | 35 | 281 | 1.7 | 3.5 | 0.00 | 0.00 | 0.00 | 85 | 1019.1 |
| 20260502062922 | 35 | 281 | 1.7 | 3.5 | 0.00 | 0.00 | 0.00 | 85 | 1019.1 |
| 20260502062825 | 35 | 281 | 1.7 | 3.5 | 0.00 | 0.00 | 0.00 | 85 | 1019.1 |
| 20260502062703 | 35 | 281 | 1.7 | 3.5 | 0.00 | 0.00 | 0.00 | 85 | 1019.1 |
| 20260502062607 | 35 | 281 | 1.7 | 3.5 | 0.00 | 0.00 | 0.00 | 85 | 1019.0 |
| 20260502062515 | 35 | 282 | 1.7 | 3.5 | 0.00 | 0.00 | 0.00 | 85 | 1019.1 |
| 20260502062418 | 35 | 282 | 1.7 | 2.6 | 0.00 | 0.00 | 0.00 | 85 | 1019.1 |
| 20260502062321 | 35 | 282 | 1.7 | 2.6 | 0.00 | 0.00 | 0.00 | 85 | 1019.1 |
| 20260502062226 | 35 | 286 | 0.9 | 1.7 | 0.00 | 0.00 | 0.00 | 85 | 1019.1 |
| 20260502062109 | 35 | 286 | 0.9 | 2.6 | 0.00 | 0.00 | 0.00 | 85 | 1019.1 |
| 20260502062014 | 35 | 286 | 0.9 | 2.6 | 0.00 | 0.00 | 0.00 | 85 | 1019.1 |
| 20260502061922 | 35 | 286 | 1.7 | 2.6 | 0.00 | 0.00 | 0.00 | 85 | 1019.1 |
| 20260502061826 | 35 | 287 | 0.9 | 2.6 | 0.00 | 0.00 | 0.00 | 85 | 1019.1 |
| 20260502061709 | 35 | 287 | 0.9 | 2.6 | 0.00 | 0.00 | 0.00 | 85 | 1019.1 |
| 20260502061612 | 35 | 287 | 0.9 | 2.6 | 0.00 | 0.00 | 0.00 | 85 | 1019.2 |
| 20260502061515 | 35 | 287 | 0.9 | 2.6 | 0.00 | 0.00 | 0.00 | 85 | 1019.1 |
| 20260502061230 | 35 | 287 | 1.7 | 2.6 | 0.00 | 0.00 | 0.00 | 85 | 1019.1 |
| 20260502061106 | 35 | 287 | 1.7 | 2.6 | 0.00 | 0.00 | 0.00 | 85 | 1019.2 |
| 20260502061031 | 35 | 287 | 1.7 | 2.6 | 0.00 | 0.00 | 0.00 | 85 | 1019.2 |
| 20260502060934 | 35 | 287 | 1.7 | 3.5 | 0.00 | 0.00 | 0.00 | 85 | 1019.1 |
| 20260502060837 | 35 | 287 | 1.7 | 3.5 | 0.00 | 0.00 | 0.00 | 85 | 1019.2 |
| 20260502060718 | 35 | 287 | 1.7 | 3.5 | 0.00 | 0.00 | 0.00 | 85 | 1019.2 |
| 20260502060621 | 35 | 287 | 1.7 | 3.5 | 0.00 | 0.00 | 0.00 | 85 | 1019.1 |
| 20260502060507 | 35 | 287 | 1.7 | 3.5 | 0.00 | 0.00 | 0.00 | 85 | 1019.2 |
| 20260502060429 | 35 | 287 | 1.7 | 3.5 | 0.00 | 0.00 | 0.00 | 85 | 1019.1 |
| 20260502060307 | 35 | 288 | 1.7 | 3.5 | 0.00 | 0.00 | 0.00 | 85 | 1019.2 |
| 20260502060230 | 35 | 287 | 2.6 | 3.5 | 0.00 | 0.00 | 0.00 | 85 | 1019.1 |
| 20260502060107 | 35 | 288 | 1.7 | 3.5 | 0.00 | 0.00 | 0.00 | 85 | 1019.1 |
| 20260502060029 | 35 | 288 | 1.7 | 3.5 | 0.00 | 0.00 | 0.00 | 85 | 1019.1 |
| 20260502055910 | 35 | 288 | 1.7 | 3.5 | 0.00 | 0.00 | 0.00 | 85 | 1019.1 |
| 20260502055817 | 35 | 289 | 1.7 | 2.6 | 0.00 | 0.00 | 0.00 | 85 | 1019.2 |
| 20260502055720 | 35 | 289 | 2.6 | 2.6 | 0.00 | 0.00 | 0.00 | 85 | 1019.2 |
| 20260502055624 | 35 | 289 | 2.6 | 2.6 | 0.00 | 0.00 | 0.00 | 85 | 1019.1 |
| 20260502055526 | 35 | 289 | 1.7 | 2.6 | 0.00 | 0.00 | 0.00 | 85 | 1019.1 |
| 20260502055429 | 35 | 289 | 1.7 | 2.6 | 0.00 | 0.00 | 0.00 | 85 | 1019.2 |
| 20260502055306 | 35 | 290 | 1.7 | 2.6 | 0.00 | 0.00 | 0.00 | 85 | 1019.2 |
| 20260502055207 | 35 | 290 | 1.7 | 2.6 | 0.00 | 0.00 | 0.00 | 85 | 1019.2 |
| 20260502055115 | 35 | 290 | 1.7 | 3.5 | 0.00 | 0.00 | 0.00 | 85 | 1019.1 |
| 20260502055038 | 35 | 290 | 1.7 | 3.5 | 0.00 | 0.00 | 0.00 | 85 | 1019.1 |
| 20260502054919 | 35 | 291 | 1.7 | 3.5 | 0.00 | 0.00 | 0.00 | 85 | 1019.2 |
| 20260502054804 | 35 | 292 | 1.7 | 3.5 | 0.00 | 0.00 | 0.00 | 85 | 1019.2 |
| 20260502054706 | 35 | 292 | 1.7 | 3.5 | 0.00 | 0.00 | 0.00 | 85 | 1019.2 |
| 20260502054630 | 35 | 292 | 1.7 | 3.5 | 0.00 | 0.00 | 0.00 | 85 | 1019.1 |
| 20260502054507 | 35 | 292 | 2.6 | 3.5 | 0.00 | 0.00 | 0.00 | 85 | 1019.2 |
| 20260502054413 | 35 | 292 | 2.6 | 3.5 | 0.00 | 0.00 | 0.00 | 84 | 1019.1 |
| 20260502054316 | 35 | 292 | 2.6 | 3.5 | 0.00 | 0.00 | 0.00 | 84 | 1019.2 |
| 20260502054240 | 35 | 292 | 1.7 | 3.5 | 0.00 | 0.00 | 0.00 | 85 | 1019.2 |
| 20260502054142 | 35 | 293 | 1.7 | 3.5 | 0.00 | 0.00 | 0.00 | 84 | 1019.2 |
| 20260502054006 | 35 | 293 | 2.6 | 3.5 | 0.00 | 0.00 | 0.00 | 85 | 1019.1 |
| 20260502053929 | 35 | 294 | 1.7 | 3.5 | 0.00 | 0.00 | 0.00 | 84 | 1019.2 |
| 20260502053810 | 35 | 294 | 1.7 | 3.5 | 0.00 | 0.00 | 0.00 | 84 | 1019.2 |
| 20260502053718 | 35 | 294 | 1.7 | 3.5 | 0.00 | 0.00 | 0.00 | 84 | 1019.2 |
| 20260502053642 | 35 | 294 | 2.6 | 3.5 | 0.00 | 0.00 | 0.00 | 84 | 1019.2 |
| 20260502053523 | 35 | 294 | 2.6 | 3.5 | 0.00 | 0.00 | 0.00 | 84 | 1019.2 |
| 20260502053446 | 35 | 294 | 2.6 | 3.5 | 0.00 | 0.00 | 0.00 | 84 | 1019.2 |
| 20260502053348 | 35 | 294 | 1.7 | 3.5 | 0.00 | 0.00 | 0.00 | 84 | 1019.2 |
| 20260502053250 | 35 | 294 | 1.7 | 2.6 | 0.00 | 0.00 | 0.00 | 84 | 1019.2 |
| 20260502053106 | 35 | 294 | 2.6 | 2.6 | 0.00 | 0.00 | 0.00 | 84 | 1019.2 |
| 20260502053008 | 35 | 294 | 1.7 | 2.6 | 0.00 | 0.00 | 0.00 | 84 | 1019.2 |
| 20260502052915 | 35 | 294 | 1.7 | 2.6 | 0.00 | 0.00 | 0.00 | 84 | 1019.2 |
| 20260502052818 | 35 | 294 | 1.7 | 2.6 | 0.00 | 0.00 | 0.00 | 84 | 1019.3 |
| 20260502052742 | 35 | 294 | 1.7 | 2.6 | 0.00 | 0.00 | 0.00 | 84 | 1019.2 |
| 20260502052624 | 35 | 294 | 1.7 | 2.6 | 0.00 | 0.00 | 0.00 | 84 | 1019.2 |
| 20260502052547 | 35 | 294 | 1.7 | 2.6 | 0.00 | 0.00 | 0.00 | 84 | 1019.2 |
| 20260502052403 | 35 | 294 | 1.7 | 2.6 | 0.00 | 0.00 | 0.00 | 84 | 1019.2 |
| 20260502052307 | 35 | 294 | 1.7 | 2.6 | 0.00 | 0.00 | 0.00 | 84 | 1019.2 |
| 20260502052213 | 35 | 294 | 1.7 | 2.6 | 0.00 | 0.00 | 0.00 | 84 | 1019.2 |
| 20260502052114 | 35 | 294 | 1.7 | 2.6 | 0.00 | 0.00 | 0.00 | 84 | 1019.2 |
| 20260502052018 | 35 | 294 | 1.7 | 2.6 | 0.00 | 0.00 | 0.00 | 84 | 1019.2 |
| 20260502051922 | 35 | 294 | 0.9 | 2.6 | 0.00 | 0.00 | 0.00 | 84 | 1019.2 |
| 20260502051806 | 35 | 294 | 1.7 | 2.6 | 0.00 | 0.00 | 0.00 | 84 | 1019.2 |
| 20260502051708 | 35 | 295 | 1.7 | 2.6 | 0.00 | 0.00 | 0.00 | 84 | 1019.2 |
| 20260502051612 | 35 | 295 | 1.7 | 3.5 | 0.00 | 0.00 | 0.00 | 84 | 1019.1 |
| 20260502051519 | 35 | 295 | 1.7 | 3.5 | 0.00 | 0.00 | 0.00 | 83 | 1019.2 |
| 20260502051423 | 35 | 294 | 1.7 | 3.5 | 0.00 | 0.00 | 0.00 | 83 | 1019.2 |
| 20260502051327 | 35 | 295 | 1.7 | 3.5 | 0.00 | 0.00 | 0.00 | 84 | 1019.2 |
| 20260502051203 | 35 | 294 | 1.7 | 3.5 | 0.00 | 0.00 | 0.00 | 83 | 1019.2 |
| 20260502051128 | 35 | 294 | 1.7 | 3.5 | 0.00 | 0.00 | 0.00 | 83 | 1019.2 |
| 20260502051005 | 35 | 295 | 1.7 | 3.5 | 0.00 | 0.00 | 0.00 | 83 | 1019.2 |
| 20260502050914 | 35 | 295 | 2.6 | 3.5 | 0.00 | 0.00 | 0.00 | 83 | 1019.2 |
| 20260502050837 | 35 | 295 | 1.7 | 3.5 | 0.00 | 0.00 | 0.00 | 83 | 1019.2 |
| 20260502050719 | 35 | 295 | 1.7 | 3.5 | 0.00 | 0.00 | 0.00 | 83 | 1019.2 |
| 20260502050643 | 36 | 296 | 1.7 | 2.6 | 0.00 | 0.00 | 0.00 | 83 | 1019.2 |
| 20260502050528 | 36 | 296 | 1.7 | 2.6 | 0.00 | 0.00 | 0.00 | 83 | 1019.2 |
| 20260502050411 | 36 | 296 | 0.9 | 2.6 | 0.00 | 0.00 | 0.00 | 83 | 1019.2 |
| 20260502050314 | 36 | 296 | 0.9 | 2.6 | 0.00 | 0.00 | 0.00 | 83 | 1019.2 |
| 20260502050203 | 36 | 296 | 0.9 | 2.6 | 0.00 | 0.00 | 0.00 | 83 | 1019.2 |
| 20260502050127 | 36 | 296 | 1.7 | 2.6 | 0.00 | 0.00 | 0.00 | 83 | 1019.2 |
| 20260502050004 | 36 | 296 | 1.7 | 2.6 | 0.00 | 0.00 | 0.00 | 83 | 1019.2 |
| 20260502045908 | 36 | 296 | 1.7 | 2.6 | 0.00 | 0.00 | 0.00 | 83 | 1019.2 |
| 20260502045812 | 36 | 296 | 0.9 | 2.6 | 0.00 | 0.00 | 0.00 | 83 | 1019.2 |
| 20260502045718 | 36 | 296 | 0.9 | 2.6 | 0.00 | 0.00 | 0.00 | 83 | 1019.2 |
| 20260502045626 | 36 | 296 | 1.7 | 2.6 | 0.00 | 0.00 | 0.00 | 83 | 1019.1 |
| 20260502045508 | 36 | 296 | 1.7 | 2.6 | 0.00 | 0.00 | 0.00 | 83 | 1019.2 |
| 20260502045411 | 36 | 296 | 1.7 | 2.6 | 0.00 | 0.00 | 0.00 | 83 | 1019.2 |
| 20260502045335 | 36 | 296 | 1.7 | 2.6 | 0.00 | 0.00 | 0.00 | 83 | 1019.2 |
| 20260502045216 | 36 | 296 | 0.9 | 2.6 | 0.00 | 0.00 | 0.00 | 83 | 1019.2 |
| 20260502045119 | 36 | 296 | 0.9 | 1.7 | 0.00 | 0.00 | 0.00 | 82 | 1019.2 |
| 20260502045023 | 36 | 296 | 0.9 | 1.7 | 0.00 | 0.00 | 0.00 | 82 | 1019.2 |
| 20260502044909 | 36 | 296 | 0.9 | 1.7 | 0.00 | 0.00 | 0.00 | 82 | 1019.2 |
| 20260502044830 | 36 | 296 | 0.9 | 1.7 | 0.00 | 0.00 | 0.00 | 82 | 1019.1 |
| 20260502044706 | 36 | 296 | 0.9 | 1.7 | 0.00 | 0.00 | 0.00 | 82 | 1019.2 |
| 20260502044609 | 36 | 296 | 0.9 | 2.6 | 0.00 | 0.00 | 0.00 | 82 | 1019.1 |
| 20260502044534 | 36 | 296 | 0.9 | 2.6 | 0.00 | 0.00 | 0.00 | 81 | 1019.1 |
| 20260502044438 | 36 | 296 | 0.9 | 2.6 | 0.00 | 0.00 | 0.00 | 81 | 1019.1 |
| 20260502044322 | 36 | 296 | 0.9 | 2.6 | 0.00 | 0.00 | 0.00 | 81 | 1019.1 |
| 20260502044210 | 36 | 296 | 0.9 | 2.6 | 0.00 | 0.00 | 0.00 | 82 | 1019.0 |
| 20260502044113 | 36 | 296 | 0.9 | 2.6 | 0.00 | 0.00 | 0.00 | 82 | 1019.1 |
| 20260502044017 | 36 | 296 | 0.9 | 2.6 | 0.00 | 0.00 | 0.00 | 82 | 1019.1 |
| 20260502043920 | 36 | 296 | 0.9 | 2.6 | 0.00 | 0.00 | 0.00 | 82 | 1019.1 |
| 20260502043843 | 36 | 296 | 1.7 | 2.6 | 0.00 | 0.00 | 0.00 | 81 | 1019.2 |
| 20260502043727 | 36 | 296 | 0.9 | 1.7 | 0.00 | 0.00 | 0.00 | 81 | 1019.1 |
| 20260502043603 | 36 | 296 | 0.9 | 1.7 | 0.00 | 0.00 | 0.00 | 81 | 1019.1 |
| 20260502043510 | 36 | 296 | 0.9 | 1.7 | 0.00 | 0.00 | 0.00 | 80 | 1019.1 |
| 20260502043434 | 36 | 296 | 0.9 | 1.7 | 0.00 | 0.00 | 0.00 | 80 | 1019.1 |
| 20260502043336 | 36 | 296 | 0.9 | 1.7 | 0.00 | 0.00 | 0.00 | 80 | 1019.1 |
| 20260502043259 | 36 | 296 | 0.9 | 1.7 | 0.00 | 0.00 | 0.00 | 80 | 1019.1 |
| 20260502043006 | 36 | 296 | 0.9 | 1.7 | 0.00 | 0.00 | 0.00 | 80 | 1019.1 |
| 20260502042929 | 36 | 296 | 0.9 | 1.7 | 0.00 | 0.00 | 0.00 | 80 | 1019.1 |
| 20260502042805 | 36 | 296 | 0.9 | 1.7 | 0.00 | 0.00 | 0.00 | 79 | 1019.1 |
| 20260502042712 | 36 | 296 | 0.9 | 1.7 | 0.00 | 0.00 | 0.00 | 79 | 1019.1 |
| 20260502042615 | 36 | 296 | 0.9 | 1.7 | 0.00 | 0.00 | 0.00 | 78 | 1019.1 |
| 20260502042519 | 36 | 296 | 0.9 | 1.7 | 0.00 | 0.00 | 0.00 | 78 | 1019.1 |
| 20260502042404 | 36 | 297 | 0.9 | 1.7 | 0.00 | 0.00 | 0.00 | 78 | 1019.2 |
| 20260502042327 | 36 | 297 | 0.9 | 1.7 | 0.00 | 0.00 | 0.00 | 78 | 1019.2 |
| 20260502042203 | 36 | 297 | 0.0 | 0.9 | 0.00 | 0.00 | 0.00 | 77 | 1019.1 |
| 20260502042131 | 36 | 297 | 0.0 | 0.9 | 0.00 | 0.00 | 0.00 | 77 | 1019.1 |
| 20260502042014 | 36 | 297 | 0.0 | 0.9 | 0.00 | 0.00 | 0.00 | 77 | 1019.1 |
| 20260502041917 | 36 | 297 | 0.9 | 0.9 | 0.00 | 0.00 | 0.00 | 76 | 1019.2 |
| 20260502041841 | 36 | 297 | 0.0 | 0.9 | 0.00 | 0.00 | 0.00 | 76 | 1019.1 |
| 20260502041724 | 36 | 297 | 0.9 | 0.9 | 0.00 | 0.00 | 0.00 | 75 | 1019.1 |
| 20260502041627 | 36 | 297 | 0.9 | 0.9 | 0.00 | 0.00 | 0.00 | 74 | 1019.1 |
| 20260502041529 | 36 | 297 | 0.9 | 0.9 | 0.00 | 0.00 | 0.00 | 75 | 1019.2 |
| 20260502041410 | 36 | 297 | 0.9 | 0.9 | 0.00 | 0.00 | 0.00 | 75 | 1019.1 |
| 20260502041334 | 37 | 297 | 0.0 | 0.9 | 0.00 | 0.00 | 0.00 | 75 | 1019.1 |
| 20260502041241 | 37 | 297 | 0.0 | 0.9 | 0.00 | 0.00 | 0.00 | 75 | 1019.1 |
| 20260502041124 | 37 | 297 | 0.0 | 0.9 | 0.00 | 0.00 | 0.00 | 76 | 1019.2 |
| 20260502041007 | 37 | 297 | 0.0 | 0.9 | 0.00 | 0.00 | 0.00 | 76 | 1019.1 |
| 20260502040910 | 37 | 297 | 0.0 | 0.9 | 0.00 | 0.00 | 0.00 | 76 | 1019.1 |
| 20260502040813 | 37 | 297 | 0.9 | 0.9 | 0.00 | 0.00 | 0.00 | 75 | 1019.1 |
| 20260502040737 | 37 | 297 | 0.9 | 0.9 | 0.00 | 0.00 | 0.00 | 75 | 1019.1 |
| 20260502040619 | 37 | 297 | 0.9 | 0.9 | 0.00 | 0.00 | 0.00 | 73 | 1019.1 |
| 20260502040506 | 37 | 297 | 0.9 | 0.9 | 0.00 | 0.00 | 0.00 | 73 | 1019.1 |
| 20260502040431 | 37 | 297 | 0.9 | 0.9 | 0.00 | 0.00 | 0.00 | 73 | 1019.1 |
| 20260502040313 | 37 | 297 | 0.9 | 0.9 | 0.00 | 0.00 | 0.00 | 73 | 1019.2 |
| 20260502040216 | 37 | 297 | 0.9 | 0.9 | 0.00 | 0.00 | 0.00 | 73 | 1019.1 |
| 20260502040119 | 37 | 297 | 0.9 | 0.9 | 0.00 | 0.00 | 0.00 | 73 | 1019.1 |
| 20260502040022 | 37 | 297 | 0.9 | 0.9 | 0.00 | 0.00 | 0.00 | 73 | 1019.2 |
| 20260502035927 | 37 | 297 | 0.9 | 0.9 | 0.00 | 0.00 | 0.00 | 73 | 1019.2 |
| 20260502035814 | 37 | 297 | 0.9 | 0.9 | 0.00 | 0.00 | 0.00 | 73 | 1019.1 |
| 20260502035717 | 37 | 297 | 0.0 | 0.9 | 0.00 | 0.00 | 0.00 | 73 | 1019.2 |
| 20260502035622 | 37 | 297 | 0.0 | 0.9 | 0.00 | 0.00 | 0.00 | 73 | 1019.2 |
| 20260502035507 | 37 | 297 | 0.0 | 0.9 | 0.00 | 0.00 | 0.00 | 73 | 1019.2 |
| 20260502035412 | 37 | 297 | 0.0 | 0.9 | 0.00 | 0.00 | 0.00 | 73 | 1019.2 |
| 20260502035316 | 37 | 297 | 0.0 | 0.9 | 0.00 | 0.00 | 0.00 | 73 | 1019.2 |
| 20260502035223 | 38 | 297 | 0.0 | 1.7 | 0.00 | 0.00 | 0.00 | 73 | 1019.2 |
| 20260502035148 | 38 | 297 | 0.0 | 1.7 | 0.00 | 0.00 | 0.00 | 73 | 1019.2 |
| 20260502035004 | 38 | 297 | 0.0 | 1.7 | 0.00 | 0.00 | 0.00 | 73 | 1019.2 |
| 20260502034909 | 38 | 297 | 0.0 | 1.7 | 0.00 | 0.00 | 0.00 | 74 | 1019.2 |
| 20260502034832 | 38 | 297 | 0.0 | 1.7 | 0.00 | 0.00 | 0.00 | 74 | 1019.2 |
| 20260502034736 | 38 | 297 | 0.0 | 1.7 | 0.00 | 0.00 | 0.00 | 74 | 1019.2 |
| 20260502034618 | 38 | 297 | 0.0 | 1.7 | 0.00 | 0.00 | 0.00 | 74 | 1019.2 |
| 20260502034506 | 38 | 297 | 0.9 | 1.7 | 0.00 | 0.00 | 0.00 | 75 | 1019.2 |
| 20260502034430 | 38 | 297 | 0.9 | 1.7 | 0.00 | 0.00 | 0.00 | 74 | 1019.2 |
| 20260502034333 | 38 | 297 | 0.9 | 1.7 | 0.00 | 0.00 | 0.00 | 74 | 1019.2 |
| 20260502034237 | 38 | 297 | 0.9 | 1.7 | 0.00 | 0.00 | 0.00 | 73 | 1019.2 |
| 20260502034141 | 38 | 297 | 0.9 | 1.7 | 0.00 | 0.00 | 0.00 | 71 | 1019.2 |
| 20260502034005 | 38 | 297 | 0.9 | 1.7 | 0.00 | 0.00 | 0.00 | 71 | 1019.2 |
| 20260502033908 | 38 | 297 | 0.9 | 1.7 | 0.00 | 0.00 | 0.00 | 70 | 1019.2 |
| 20260502033813 | 38 | 297 | 0.9 | 1.7 | 0.00 | 0.00 | 0.00 | 70 | 1019.3 |
| 20260502033722 | 38 | 297 | 0.9 | 1.7 | 0.00 | 0.00 | 0.00 | 71 | 1019.2 |
| 20260502033607 | 38 | 297 | 0.9 | 1.7 | 0.00 | 0.00 | 0.00 | 73 | 1019.2 |
| 20260502033512 | 38 | 297 | 0.9 | 1.7 | 0.00 | 0.00 | 0.00 | 74 | 1019.2 |
| 20260502033415 | 38 | 297 | 0.9 | 1.7 | 0.00 | 0.00 | 0.00 | 74 | 1019.3 |
| 20260502033320 | 38 | 298 | 0.9 | 1.7 | 0.00 | 0.00 | 0.00 | 73 | 1019.3 |
| 20260502033225 | 38 | 299 | 0.9 | 1.7 | 0.00 | 0.00 | 0.00 | 73 | 1019.3 |
| 20260502033112 | 38 | 300 | 0.9 | 1.7 | 0.00 | 0.00 | 0.00 | 74 | 1019.3 |
| 20260502033017 | 38 | 301 | 0.9 | 1.7 | 0.00 | 0.00 | 0.00 | 75 | 1019.3 |
| 20260502032941 | 38 | 301 | 0.9 | 1.7 | 0.00 | 0.00 | 0.00 | 75 | 1019.2 |
| 20260502032844 | 39 | 301 | 0.9 | 1.7 | 0.00 | 0.00 | 0.00 | 75 | 1019.3 |
| 20260502032748 | 39 | 301 | 0.0 | 0.9 | 0.00 | 0.00 | 0.00 | 74 | 1019.3 |
| 20260502032604 | 39 | 301 | 0.0 | 0.0 | 0.00 | 0.00 | 0.00 | 73 | 1019.3 |
| 20260502032509 | 39 | 301 | 0.0 | 0.0 | 0.00 | 0.00 | 0.00 | 71 | 1019.3 |
| 20260502032417 | 39 | 301 | 0.0 | 0.0 | 0.00 | 0.00 | 0.00 | 72 | 1019.3 |
| 20260502032322 | 39 | 301 | 0.0 | 0.0 | 0.00 | 0.00 | 0.00 | 73 | 1019.3 |
| 20260502032207 | 39 | 301 | 0.0 | 0.0 | 0.00 | 0.00 | 0.00 | 73 | 1019.3 |
| 20260502032111 | 39 | 301 | 0.0 | 0.0 | 0.00 | 0.00 | 0.00 | 72 | 1019.2 |
| 20260502032015 | 39 | 301 | 0.0 | 0.9 | 0.00 | 0.00 | 0.00 | 71 | 1019.2 |
| 20260502031920 | 39 | 301 | 0.0 | 0.9 | 0.00 | 0.00 | 0.00 | 71 | 1019.2 |
| 20260502031808 | 39 | 301 | 0.0 | 0.9 | 0.00 | 0.00 | 0.00 | 71 | 1019.2 |
| 20260502031713 | 39 | 301 | 0.0 | 0.9 | 0.00 | 0.00 | 0.00 | 72 | 1019.2 |
| 20260502031617 | 39 | 301 | 0.0 | 0.9 | 0.00 | 0.00 | 0.00 | 72 | 1019.2 |
| 20260502031541 | 39 | 301 | 0.0 | 1.7 | 0.00 | 0.00 | 0.00 | 72 | 1019.2 |
| 20260502031405 | 39 | 301 | 0.0 | 1.7 | 0.00 | 0.00 | 0.00 | 70 | 1019.2 |
| 20260502031309 | 39 | 301 | 0.0 | 1.7 | 0.00 | 0.00 | 0.00 | 70 | 1019.1 |
| 20260502031217 | 39 | 301 | 0.0 | 1.7 | 0.00 | 0.00 | 0.00 | 69 | 1019.1 |
| 20260502031121 | 39 | 301 | 0.9 | 1.7 | 0.00 | 0.00 | 0.00 | 69 | 1019.1 |
| 20260502031005 | 39 | 301 | 0.9 | 1.7 | 0.00 | 0.00 | 0.00 | 69 | 1019.1 |
| 20260502030908 | 39 | 301 | 0.9 | 1.7 | 0.00 | 0.00 | 0.00 | 68 | 1019.2 |
| 20260502030812 | 39 | 301 | 0.9 | 1.7 | 0.00 | 0.00 | 0.00 | 66 | 1019.2 |
| 20260502030716 | 39 | 301 | 0.9 | 1.7 | 0.00 | 0.00 | 0.00 | 67 | 1019.2 |
| 20260502030639 | 40 | 301 | 0.9 | 1.7 | 0.00 | 0.00 | 0.00 | 67 | 1019.2 |
| 20260502030526 | 40 | 301 | 0.9 | 1.7 | 0.00 | 0.00 | 0.00 | 68 | 1019.1 |
| 20260502030403 | 40 | 301 | 0.9 | 1.7 | 0.00 | 0.00 | 0.00 | 69 | 1019.1 |
| 20260502030307 | 40 | 301 | 0.9 | 1.7 | 0.00 | 0.00 | 0.00 | 68 | 1019.2 |
| 20260502030210 | 40 | 301 | 0.9 | 1.7 | 0.00 | 0.00 | 0.00 | 68 | 1019.1 |
| 20260502030113 | 40 | 301 | 0.0 | 1.7 | 0.00 | 0.00 | 0.00 | 65 | 1019.1 |
| 20260502030016 | 40 | 301 | 0.0 | 0.0 | 0.00 | 0.00 | 0.00 | 64 | 1019.2 |
| 20260502025905 | 40 | 301 | 0.0 | 0.0 | 0.00 | 0.00 | 0.00 | 64 | 1019.1 |
| 20260502025828 | 40 | 301 | 0.0 | 0.0 | 0.00 | 0.00 | 0.00 | 64 | 1019.1 |
| 20260502025710 | 40 | 301 | 0.0 | 0.0 | 0.00 | 0.00 | 0.00 | 64 | 1019.1 |
| 20260502025615 | 41 | 301 | 0.0 | 0.0 | 0.00 | 0.00 | 0.00 | 64 | 1019.2 |
| 20260502025539 | 41 | 301 | 0.0 | 0.0 | 0.00 | 0.00 | 0.00 | 64 | 1019.1 |
| 20260502025421 | 41 | 301 | 0.0 | 0.0 | 0.00 | 0.00 | 0.00 | 63 | 1019.1 |
| 20260502025308 | 41 | 301 | 0.0 | 0.0 | 0.00 | 0.00 | 0.00 | 63 | 1019.2 |
| 20260502025213 | 41 | 301 | 0.0 | 0.0 | 0.00 | 0.00 | 0.00 | 63 | 1019.1 |
| 20260502025116 | 41 | 301 | 0.0 | 0.0 | 0.00 | 0.00 | 0.00 | 64 | 1019.2 |
| 20260502025020 | 41 | 301 | 0.0 | 0.0 | 0.00 | 0.00 | 0.00 | 64 | 1019.1 |
| 20260502024925 | 41 | 301 | 0.0 | 0.0 | 0.00 | 0.00 | 0.00 | 64 | 1019.1 |
| 20260502024829 | 41 | 301 | 0.0 | 0.0 | 0.00 | 0.00 | 0.00 | 64 | 1019.1 |
| 20260502024706 | 41 | 301 | 0.0 | 0.9 | 0.00 | 0.00 | 0.00 | 64 | 1019.2 |
| 20260502024614 | 41 | 301 | 0.0 | 0.9 | 0.00 | 0.00 | 0.00 | 64 | 1019.1 |
| 20260502024518 | 42 | 301 | 0.0 | 0.9 | 0.00 | 0.00 | 0.00 | 65 | 1019.2 |
| 20260502024422 | 42 | 301 | 0.0 | 0.9 | 0.00 | 0.00 | 0.00 | 69 | 1019.1 |
| 20260502024325 | 42 | 301 | 0.0 | 0.9 | 0.00 | 0.00 | 0.00 | 69 | 1019.2 |
| 20260502024207 | 42 | 301 | 0.0 | 0.9 | 0.00 | 0.00 | 0.00 | 68 | 1019.2 |
| 20260502024131 | 42 | 301 | 0.0 | 0.9 | 0.00 | 0.00 | 0.00 | 64 | 1019.1 |
| 20260502024014 | 42 | 301 | 0.0 | 0.9 | 0.00 | 0.00 | 0.00 | 63 | 1019.2 |
| 20260502023920 | 42 | 301 | 0.0 | 0.9 | 0.00 | 0.00 | 0.00 | 65 | 1019.1 |
| 20260502023805 | 42 | 301 | 0.0 | 0.9 | 0.00 | 0.00 | 0.00 | 65 | 1019.2 |
| 20260502023729 | 42 | 301 | 0.0 | 0.9 | 0.00 | 0.00 | 0.00 | 63 | 1019.2 |
| 20260502023611 | 42 | 301 | 0.0 | 0.0 | 0.00 | 0.00 | 0.00 | 62 | 1019.1 |
| 20260502023514 | 42 | 301 | 0.0 | 0.0 | 0.00 | 0.00 | 0.00 | 62 | 1019.2 |
| 20260502023417 | 42 | 301 | 0.0 | 0.0 | 0.00 | 0.00 | 0.00 | 62 | 1019.2 |
| 20260502023325 | 43 | 301 | 0.0 | 0.0 | 0.00 | 0.00 | 0.00 | 63 | 1019.2 |
| 20260502023206 | 43 | 301 | 0.0 | 0.0 | 0.00 | 0.00 | 0.00 | 61 | 1019.2 |
| 20260502023110 | 43 | 301 | 0.0 | 0.0 | 0.00 | 0.00 | 0.00 | 60 | 1019.3 |
| 20260502023013 | 43 | 301 | 0.0 | 0.0 | 0.00 | 0.00 | 0.00 | 60 | 1019.2 |
| 20260502022936 | 43 | 301 | 0.0 | 0.0 | 0.00 | 0.00 | 0.00 | 60 | 1019.2 |
| 20260502022818 | 43 | 301 | 0.0 | 0.9 | 0.00 | 0.00 | 0.00 | 59 | 1019.2 |
| 20260502022721 | 43 | 301 | 0.0 | 0.9 | 0.00 | 0.00 | 0.00 | 57 | 1019.2 |
| 20260502022628 | 43 | 301 | 0.0 | 0.9 | 0.00 | 0.00 | 0.00 | 56 | 1019.2 |
| 20260502022505 | 43 | 301 | 0.0 | 0.9 | 0.00 | 0.00 | 0.00 | 56 | 1019.2 |
| 20260502022429 | 43 | 301 | 0.0 | 0.9 | 0.00 | 0.00 | 0.00 | 57 | 1019.2 |
| 20260502022311 | 44 | 301 | 0.0 | 0.9 | 0.00 | 0.00 | 0.00 | 57 | 1019.2 |
| 20260502022213 | 44 | 301 | 0.0 | 0.9 | 0.00 | 0.00 | 0.00 | 56 | 1019.2 |
| 20260502022116 | 44 | 301 | 0.0 | 0.9 | 0.00 | 0.00 | 0.00 | 59 | 1019.2 |
| 20260502022003 | 44 | 301 | 0.0 | 0.9 | 0.00 | 0.00 | 0.00 | 62 | 1019.2 |
| 20260502021927 | 44 | 301 | 0.0 | 0.9 | 0.00 | 0.00 | 0.00 | 63 | 1019.2 |
| 20260502021809 | 44 | 301 | 0.0 | 0.9 | 0.00 | 0.00 | 0.00 | 63 | 1019.2 |
| 20260502021712 | 44 | 301 | 0.9 | 0.9 | 0.00 | 0.00 | 0.00 | 63 | 1019.1 |
| 20260502021615 | 44 | 301 | 0.9 | 0.9 | 0.00 | 0.00 | 0.00 | 60 | 1019.2 |
| 20260502021518 | 44 | 301 | 0.9 | 0.9 | 0.00 | 0.00 | 0.00 | 57 | 1019.2 |
| 20260502021421 | 44 | 301 | 0.9 | 0.9 | 0.00 | 0.00 | 0.00 | 55 | 1019.1 |
| 20260502021327 | 44 | 301 | 0.9 | 1.7 | 0.00 | 0.00 | 0.00 | 56 | 1019.2 |
| 20260502021203 | 45 | 301 | 0.9 | 1.7 | 0.00 | 0.00 | 0.00 | 57 | 1019.2 |
| 20260502021127 | 45 | 301 | 0.9 | 1.7 | 0.00 | 0.00 | 0.00 | 59 | 1019.1 |
| 20260502021029 | 45 | 301 | 0.9 | 1.7 | 0.00 | 0.00 | 0.00 | 58 | 1019.1 |
| 20260502020931 | 45 | 301 | 0.9 | 1.7 | 0.00 | 0.00 | 0.00 | 57 | 1019.2 |
| 20260502020815 | 45 | 301 | 0.9 | 1.7 | 0.00 | 0.00 | 0.00 | 58 | 1019.1 |
| 20260502020718 | 45 | 301 | 0.9 | 1.7 | 0.00 | 0.00 | 0.00 | 61 | 1019.2 |
| 20260502020641 | 45 | 301 | 0.9 | 1.7 | 0.00 | 0.00 | 0.00 | 63 | 1019.1 |
| 20260502020528 | 45 | 301 | 0.9 | 1.7 | 0.00 | 0.00 | 0.00 | 62 | 1019.1 |
| 20260502020405 | 45 | 301 | 0.9 | 1.7 | 0.00 | 0.00 | 0.00 | 60 | 1019.1 |
| 20260502020308 | 46 | 301 | 1.7 | 2.6 | 0.00 | 0.00 | 0.00 | 59 | 1019.1 |
| 20260502020212 | 46 | 302 | 1.7 | 2.6 | 0.00 | 0.00 | 0.00 | 60 | 1019.0 |
| 20260502020115 | 46 | 302 | 0.9 | 2.6 | 0.00 | 0.00 | 0.00 | 57 | 1019.1 |
| 20260502020019 | 46 | 302 | 0.9 | 2.6 | 0.00 | 0.00 | 0.00 | 59 | 1019.1 |
| 20260502015906 | 46 | 302 | 0.9 | 3.5 | 0.00 | 0.00 | 0.00 | 59 | 1019.1 |
| 20260502015831 | 46 | 302 | 0.9 | 3.5 | 0.00 | 0.00 | 0.00 | 57 | 1019.1 |
| 20260502015714 | 46 | 302 | 0.9 | 3.5 | 0.00 | 0.00 | 0.00 | 53 | 1019.0 |
| 20260502015639 | 47 | 302 | 1.7 | 3.5 | 0.00 | 0.00 | 0.00 | 53 | 1019.0 |
| 20260502015522 | 47 | 302 | 1.7 | 3.5 | 0.00 | 0.00 | 0.00 | 54 | 1019.0 |
| 20260502015407 | 47 | 302 | 1.7 | 3.5 | 0.00 | 0.00 | 0.00 | 53 | 1019.0 |
| 20260502015310 | 47 | 302 | 1.7 | 3.5 | 0.00 | 0.00 | 0.00 | 55 | 1018.9 |
| 20260502015219 | 47 | 302 | 1.7 | 3.5 | 0.00 | 0.00 | 0.00 | 57 | 1018.9 |
| 20260502015121 | 47 | 302 | 1.7 | 3.5 | 0.00 | 0.00 | 0.00 | 52 | 1018.8 |
| 20260502015026 | 48 | 302 | 1.7 | 2.6 | 0.00 | 0.00 | 0.00 | 54 | 1018.9 |
| 20260502014928 | 48 | 326 | 1.7 | 2.6 | 0.00 | 0.00 | 0.00 | 57 | 1018.9 |
| 20260502014806 | 48 | 327 | 0.9 | 3.5 | 0.00 | 0.00 | 0.00 | 55 | 1018.9 |
| 20260502014731 | 48 | 328 | 1.7 | 3.5 | 0.00 | 0.00 | 0.00 | 53 | 1018.9 |
| 20260502014634 | 48 | 328 | 1.7 | 3.5 | 0.00 | 0.00 | 0.00 | 48 | 1018.8 |
| 20260502014519 | 48 | 331 | 0.9 | 3.5 | 0.00 | 0.00 | 0.00 | 47 | 1018.8 |
| 20260502014420 | 49 | 332 | 0.9 | 3.5 | 0.00 | 0.00 | 0.00 | 47 | 1018.8 |
| 20260502014324 | 49 | 332 | 1.7 | 3.5 | 0.00 | 0.00 | 0.00 | 49 | 1018.8 |
| 20260502014247 | 49 | 332 | 1.7 | 3.5 | 0.00 | 0.00 | 0.00 | 51 | 1018.9 |
| 20260502014104 | 49 | 332 | 1.7 | 3.5 | 0.00 | 0.00 | 0.00 | 50 | 1018.8 |
| 20260502014027 | 49 | 332 | 2.6 | 3.5 | 0.00 | 0.00 | 0.00 | 50 | 1018.8 |
| 20260502013904 | 50 | 331 | 1.7 | 2.6 | 0.00 | 0.00 | 0.00 | 49 | 1018.8 |
| 20260502013832 | 50 | 331 | 0.9 | 2.6 | 0.00 | 0.00 | 0.00 | 44 | 1018.8 |
| 20260502013734 | 50 | 331 | 0.9 | 2.6 | 0.00 | 0.00 | 0.00 | 45 | 1018.8 |
| 20260502013615 | 50 | 332 | 1.7 | 2.6 | 0.00 | 0.00 | 0.00 | 49 | 1018.8 |
| 20260502013519 | 50 | 331 | 1.7 | 2.6 | 0.00 | 0.00 | 0.00 | 51 | 1018.8 |
| 20260502013425 | 50 | 331 | 1.7 | 2.6 | 0.00 | 0.00 | 0.00 | 46 | 1018.8 |
| 20260502013328 | 50 | 346 | 1.7 | 2.6 | 0.00 | 0.00 | 0.00 | 46 | 1018.8 |
| 20260502013205 | 50 | 346 | 0.9 | 2.6 | 0.00 | 0.00 | 0.00 | 49 | 1018.8 |
| 20260502013130 | 50 | 347 | 0.9 | 2.6 | 0.00 | 0.00 | 0.00 | 49 | 1018.7 |
| 20260502013016 | 51 | 347 | 0.9 | 2.6 | 0.00 | 0.00 | 0.00 | 47 | 1018.7 |
| 20260502012940 | 51 | 347 | 0.9 | 2.6 | 0.00 | 0.00 | 0.00 | 49 | 1018.7 |
| 20260502012822 | 51 | 347 | 0.9 | 2.6 | 0.00 | 0.00 | 0.00 | 45 | 1018.7 |
| 20260502012706 | 51 | 347 | 1.7 | 2.6 | 0.00 | 0.00 | 0.00 | 46 | 1018.7 |
| 20260502012611 | 51 | 346 | 0.9 | 2.6 | 0.00 | 0.00 | 0.00 | 45 | 1018.8 |
| 20260502012515 | 51 | 346 | 0.9 | 2.6 | 0.00 | 0.00 | 0.00 | 44 | 1018.7 |
| 20260502012404 | 51 | 347 | 1.7 | 2.6 | 0.00 | 0.00 | 0.00 | 41 | 1018.7 |
| 20260502012328 | 51 | 347 | 1.7 | 2.6 | 0.00 | 0.00 | 0.00 | 41 | 1018.7 |
| 20260502012205 | 51 | 346 | 1.7 | 2.6 | 0.00 | 0.00 | 0.00 | 45 | 1018.7 |
| 20260502012109 | 51 | 344 | 1.7 | 2.6 | 0.00 | 0.00 | 0.00 | 45 | 1018.7 |
| 20260502012034 | 51 | 344 | 1.7 | 2.6 | 0.00 | 0.00 | 0.00 | 45 | 1018.7 |
| 20260502011916 | 51 | 344 | 1.7 | 2.6 | 0.00 | 0.00 | 0.00 | 43 | 1018.7 |
| 20260502011841 | 51 | 350 | 1.7 | 2.6 | 0.00 | 0.00 | 0.00 | 42 | 1018.7 |
| 20260502011709 | 51 | 351 | 1.7 | 3.5 | 0.00 | 0.00 | 0.00 | 44 | 1018.7 |
| 20260502011632 | 51 | 309 | 1.7 | 4.3 | 0.00 | 0.00 | 0.00 | 41 | 1018.7 |
| 20260502011516 | 51 | 308 | 1.7 | 4.3 | 0.00 | 0.00 | 0.00 | 40 | 1018.7 |
| 20260502011420 | 51 | 323 | 0.9 | 4.3 | 0.00 | 0.00 | 0.00 | 43 | 1018.7 |
| 20260502011304 | 51 | 5 | 1.7 | 4.3 | 0.00 | 0.00 | 0.00 | 40 | 1018.7 |
| 20260502011209 | 51 | 5 | 1.7 | 4.3 | 0.00 | 0.00 | 0.00 | 38 | 1018.7 |
| 20260502011114 | 51 | 5 | 1.7 | 4.3 | 0.00 | 0.00 | 0.00 | 41 | 1018.7 |
| 20260502011020 | 51 | 5 | 2.6 | 4.3 | 0.00 | 0.00 | 0.00 | 39 | 1018.7 |
| 20260502010920 | 51 | 5 | 2.6 | 4.3 | 0.00 | 0.00 | 0.00 | 39 | 1018.6 |
| 20260502010821 | 51 | 10 | 2.6 | 4.3 | 0.00 | 0.00 | 0.00 | 38 | 1018.7 |
| 20260502010727 | 51 | 329 | 2.6 | 4.3 | 0.00 | 0.00 | 0.00 | 39 | 1018.7 |
| 20260502010607 | 52 | 5 | 2.6 | 3.5 | 0.00 | 0.00 | 0.00 | 38 | 1018.6 |
| 20260502010511 | 52 | 355 | 1.7 | 3.5 | 0.00 | 0.00 | 0.00 | 39 | 1018.6 |
| 20260502010415 | 52 | 344 | 1.7 | 3.5 | 0.00 | 0.00 | 0.00 | 43 | 1018.6 |
| 20260502010321 | 52 | 344 | 0.9 | 3.5 | 0.00 | 0.00 | 0.00 | 43 | 1018.6 |
| 20260502010206 | 52 | 344 | 0.9 | 4.3 | 0.00 | 0.00 | 0.00 | 44 | 1018.6 |
| 20260502010111 | 52 | 344 | 1.7 | 4.3 | 0.00 | 0.00 | 0.00 | 42 | 1018.6 |
| 20260502010037 | 52 | 344 | 1.7 | 4.3 | 0.00 | 0.00 | 0.00 | 37 | 1018.6 |
| 20260502005902 | 52 | 355 | 1.7 | 4.3 | 0.00 | 0.00 | 0.00 | 37 | 1018.6 |
| 20260502005806 | 52 | 355 | 2.6 | 4.3 | 0.00 | 0.00 | 0.00 | 37 | 1018.7 |
| 20260502005715 | 52 | 355 | 2.6 | 4.3 | 0.00 | 0.00 | 0.00 | 37 | 1018.6 |
| 20260502005620 | 52 | 360 | 1.7 | 4.3 | 0.00 | 0.00 | 0.00 | 40 | 1018.6 |
| 20260502005525 | 52 | 360 | 2.6 | 4.3 | 0.00 | 0.00 | 0.00 | 40 | 1018.6 |
| 20260502005407 | 52 | 5 | 3.5 | 4.3 | 0.00 | 0.00 | 0.00 | 37 | 1018.6 |
| 20260502005311 | 52 | 318 | 3.5 | 4.3 | 0.00 | 0.00 | 0.00 | 39 | 1018.6 |
| 20260502005216 | 52 | 322 | 2.6 | 4.3 | 0.00 | 0.00 | 0.00 | 40 | 1018.6 |
| 20260502005104 | 52 | 58 | 1.7 | 4.3 | 0.00 | 0.00 | 0.00 | 42 | 1018.6 |
| 20260502005010 | 52 | 58 | 1.7 | 4.3 | 0.00 | 0.00 | 0.00 | 42 | 1018.6 |
| 20260502004913 | 52 | 58 | 1.7 | 4.3 | 0.00 | 0.00 | 0.00 | 42 | 1018.6 |
| 20260502004818 | 52 | 58 | 2.6 | 4.3 | 0.00 | 0.00 | 0.00 | 40 | 1018.6 |
| 20260502004722 | 52 | 42 | 1.7 | 4.3 | 0.00 | 0.00 | 0.00 | 37 | 1018.6 |
| 20260502004604 | 52 | 44 | 1.7 | 4.3 | 0.00 | 0.00 | 0.00 | 37 | 1018.6 |
| 20260502004533 | 52 | 44 | 2.6 | 4.3 | 0.00 | 0.00 | 0.00 | 37 | 1018.6 |
| 20260502004416 | 52 | 355 | 2.6 | 7.0 | 0.00 | 0.00 | 0.00 | 37 | 1018.7 |
| 20260502004321 | 52 | 360 | 2.6 | 7.8 | 0.00 | 0.00 | 0.00 | 37 | 1018.6 |
| 20260502004206 | 52 | 355 | 2.6 | 7.8 | 0.00 | 0.00 | 0.00 | 39 | 1018.6 |
| 20260502004110 | 52 | 13 | 1.7 | 7.8 | 0.00 | 0.00 | 0.00 | 38 | 1018.6 |
| 20260502004012 | 52 | 13 | 2.6 | 7.8 | 0.00 | 0.00 | 0.00 | 36 | 1018.6 |
| 20260502003937 | 52 | 313 | 2.6 | 7.8 | 0.00 | 0.00 | 0.00 | 36 | 1018.6 |
| 20260502003803 | 52 | 351 | 2.6 | 7.8 | 0.00 | 0.00 | 0.00 | 37 | 1018.7 |
| 20260502003707 | 52 | 40 | 3.5 | 7.8 | 0.00 | 0.00 | 0.00 | 37 | 1018.6 |
| 20260502003612 | 52 | 49 | 4.3 | 7.8 | 0.00 | 0.00 | 0.00 | 36 | 1018.6 |
| 20260502003516 | 52 | 5 | 4.3 | 7.8 | 0.00 | 0.00 | 0.00 | 38 | 1018.7 |
| 20260502003418 | 52 | 47 | 3.5 | 4.3 | 0.00 | 0.00 | 0.00 | 39 | 1018.6 |
| 20260502003306 | 52 | 5 | 2.6 | 4.3 | 0.00 | 0.00 | 0.00 | 38 | 1018.6 |
| 20260502003208 | 52 | 28 | 2.6 | 4.3 | 0.00 | 0.00 | 0.00 | 38 | 1018.6 |
| 20260502003108 | 52 | 34 | 2.6 | 4.3 | 0.00 | 0.00 | 0.00 | 37 | 1018.6 |
| 20260502003010 | 52 | 351 | 2.6 | 5.2 | 0.00 | 0.00 | 0.00 | 37 | 1018.7 |
| 20260502002916 | 52 | 24 | 2.6 | 5.2 | 0.00 | 0.00 | 0.00 | 38 | 1018.6 |
| 20260502002818 | 52 | 5 | 2.6 | 5.2 | 0.00 | 0.00 | 0.00 | 38 | 1018.6 |
| 20260502002703 | 52 | 355 | 2.6 | 5.2 | 0.00 | 0.00 | 0.00 | 39 | 1018.7 |
| 20260502002608 | 52 | 334 | 3.5 | 5.2 | 0.00 | 0.00 | 0.00 | 40 | 1018.7 |
| 20260502002512 | 52 | 344 | 3.5 | 5.2 | 0.00 | 0.00 | 0.00 | 36 | 1018.6 |
| 20260502002415 | 52 | 360 | 2.6 | 5.2 | 0.00 | 0.00 | 0.00 | 38 | 1018.6 |
| 20260502002319 | 52 | 355 | 2.6 | 5.2 | 0.00 | 0.00 | 0.00 | 37 | 1018.6 |
| 20260502002220 | 52 | 340 | 3.5 | 5.2 | 0.00 | 0.00 | 0.00 | 37 | 1018.7 |
| 20260502002105 | 52 | 337 | 2.6 | 4.3 | 0.00 | 0.00 | 0.00 | 39 | 1018.7 |
| 20260502002009 | 52 | 355 | 2.6 | 4.3 | 0.00 | 0.00 | 0.00 | 37 | 1018.7 |
| 20260502001930 | 52 | 347 | 1.7 | 4.3 | 0.00 | 0.00 | 0.00 | 38 | 1018.7 |
| 20260502001811 | 52 | 17 | 1.7 | 5.2 | 0.00 | 0.00 | 0.00 | 38 | 1018.7 |
| 20260502001713 | 52 | 11 | 1.7 | 5.2 | 0.00 | 0.00 | 0.00 | 40 | 1018.7 |
| 20260502001618 | 52 | 11 | 1.7 | 7.0 | 0.00 | 0.00 | 0.00 | 38 | 1018.7 |
| 20260502001519 | 52 | 11 | 3.5 | 7.0 | 0.00 | 0.00 | 0.00 | 37 | 1018.7 |
| 20260502001424 | 52 | 30 | 3.5 | 7.0 | 0.00 | 0.00 | 0.00 | 38 | 1018.7 |
| 20260502001326 | 52 | 15 | 2.6 | 7.0 | 0.00 | 0.00 | 0.00 | 38 | 1018.7 |
| 20260502001207 | 52 | 355 | 3.5 | 7.0 | 0.00 | 0.00 | 0.00 | 37 | 1018.8 |
| 20260502001109 | 52 | 340 | 3.5 | 7.0 | 0.00 | 0.00 | 0.00 | 37 | 1018.7 |
| 20260502001029 | 52 | 5 | 3.5 | 7.0 | 0.00 | 0.00 | 0.00 | 38 | 1018.8 |
| 20260502000910 | 52 | 328 | 4.3 | 7.0 | 0.00 | 0.00 | 0.00 | 38 | 1018.8 |
| 20260502000832 | 52 | 339 | 4.3 | 7.0 | 0.00 | 0.00 | 0.00 | 38 | 1018.7 |
| 20260502000717 | 52 | 15 | 3.5 | 7.0 | 0.00 | 0.00 | 0.00 | 38 | 1018.8 |
| 20260502000638 | 52 | 360 | 2.6 | 5.2 | 0.00 | 0.00 | 0.00 | 39 | 1018.7 |
| 20260502000518 | 52 | 15 | 2.6 | 7.0 | 0.00 | 0.00 | 0.00 | 39 | 1018.6 |
| 20260502000403 | 52 | 19 | 2.6 | 7.8 | 0.00 | 0.00 | 0.00 | 39 | 1018.7 |
| 20260502000310 | 52 | 5 | 2.6 | 7.8 | 0.00 | 0.00 | 0.00 | 40 | 1018.7 |
| 20260502000233 | 52 | 327 | 2.6 | 7.8 | 0.00 | 0.00 | 0.00 | 37 | 1018.7 |
| 20260502000113 | 52 | 343 | 2.6 | 7.8 | 0.00 | 0.00 | 0.00 | 39 | 1018.7 |
| 20260502000036 | 53 | 295 | 2.6 | 7.8 | 0.00 | 0.00 | 0.00 | 37 | 1018.6 |
| 20260501235921 | 53 | 331 | 2.6 | 7.8 | 0.00 | 0.00 | 0.00 | 38 | 1018.7 |
| 20260501235840 | 53 | 301 | 3.5 | 7.8 | 0.00 | 0.00 | 0.00 | 38 | 1018.6 |
| 20260501235722 | 53 | 301 | 5.2 | 7.8 | 0.00 | 0.00 | 0.00 | 37 | 1018.7 |
| 20260501235645 | 53 | 319 | 5.2 | 8.7 | 0.00 | 0.00 | 0.00 | 37 | 1018.7 |
| 20260501235523 | 53 | 333 | 4.3 | 8.7 | 0.00 | 0.00 | 0.00 | 39 | 1018.7 |
| 20260501235407 | 53 | 5 | 4.3 | 8.7 | 0.00 | 0.00 | 0.00 | 38 | 1018.7 |
| 20260501235310 | 53 | 342 | 4.3 | 8.7 | 0.00 | 0.00 | 0.00 | 37 | 1018.7 |
| 20260501235215 | 53 | 325 | 4.3 | 8.7 | 0.00 | 0.00 | 0.00 | 38 | 1018.7 |
| 20260501235135 | 53 | 5 | 3.5 | 8.7 | 0.00 | 0.00 | 0.00 | 38 | 1018.7 |
| 20260501235016 | 53 | 24 | 5.2 | 8.7 | 0.00 | 0.00 | 0.00 | 36 | 1018.8 |
| 20260501234940 | 53 | 39 | 5.2 | 8.7 | 0.00 | 0.00 | 0.00 | 37 | 1018.8 |
| 20260501234820 | 53 | 9 | 3.5 | 8.7 | 0.00 | 0.00 | 0.00 | 39 | 1018.8 |
| 20260501234740 | 53 | 341 | 3.5 | 7.8 | 0.00 | 0.00 | 0.00 | 37 | 1018.7 |
| 20260501234621 | 53 | 37 | 3.5 | 8.7 | 0.00 | 0.00 | 0.00 | 37 | 1018.7 |
| 20260501234522 | 53 | 26 | 4.3 | 8.7 | 0.00 | 0.00 | 0.00 | 37 | 1018.8 |
| 20260501234407 | 53 | 5 | 4.3 | 8.7 | 0.00 | 0.00 | 0.00 | 37 | 1018.7 |
| 20260501234328 | 53 | 360 | 3.5 | 8.7 | 0.00 | 0.00 | 0.00 | 37 | 1018.7 |
| 20260501234209 | 53 | 18 | 3.5 | 8.7 | 0.00 | 0.00 | 0.00 | 37 | 1018.7 |
| 20260501234110 | 53 | 360 | 4.3 | 8.7 | 0.00 | 0.00 | 0.00 | 37 | 1018.7 |
| 20260501234012 | 53 | 336 | 4.3 | 8.7 | 0.00 | 0.00 | 0.00 | 38 | 1018.7 |
| 20260501233913 | 53 | 355 | 5.2 | 8.7 | 0.00 | 0.00 | 0.00 | 36 | 1018.7 |
| 20260501233837 | 53 | 355 | 6.1 | 8.7 | 0.00 | 0.00 | 0.00 | 36 | 1018.7 |
| 20260501233743 | 53 | 360 | 5.2 | 8.7 | 0.00 | 0.00 | 0.00 | 36 | 1018.7 |
| 20260501233607 | 53 | 355 | 5.2 | 7.8 | 0.00 | 0.00 | 0.00 | 37 | 1018.7 |
| 20260501233508 | 53 | 338 | 5.2 | 7.0 | 0.00 | 0.00 | 0.00 | 38 | 1018.8 |
| 20260501233412 | 53 | 339 | 4.3 | 7.0 | 0.00 | 0.00 | 0.00 | 37 | 1018.7 |
| 20260501233313 | 53 | 350 | 3.5 | 5.2 | 0.00 | 0.00 | 0.00 | 36 | 1018.7 |
| 20260501233236 | 53 | 339 | 3.5 | 5.2 | 0.00 | 0.00 | 0.00 | 37 | 1018.6 |
| 20260501233116 | 53 | 27 | 3.5 | 5.2 | 0.00 | 0.00 | 0.00 | 39 | 1018.7 |
| 20260501233021 | 53 | 5 | 3.5 | 5.2 | 0.00 | 0.00 | 0.00 | 37 | 1018.7 |
| 20260501232923 | 53 | 326 | 2.6 | 5.2 | 0.00 | 0.00 | 0.00 | 38 | 1018.7 |
| 20260501232825 | 53 | 338 | 2.6 | 4.3 | 0.00 | 0.00 | 0.00 | 40 | 1018.7 |
| 20260501232708 | 53 | 297 | 2.6 | 4.3 | 0.00 | 0.00 | 0.00 | 42 | 1018.7 |
| 20260501232613 | 53 | 296 | 2.6 | 5.2 | 0.00 | 0.00 | 0.00 | 41 | 1018.7 |
| 20260501232536 | 53 | 285 | 2.6 | 4.3 | 0.00 | 0.00 | 0.00 | 36 | 1018.6 |
| 20260501232420 | 53 | 283 | 1.7 | 7.0 | 0.00 | 0.00 | 0.00 | 37 | 1018.6 |
| 20260501232306 | 53 | 61 | 0.9 | 7.8 | 0.00 | 0.00 | 0.00 | 34 | 1018.6 |
| 20260501232210 | 53 | 61 | 0.9 | 7.8 | 0.00 | 0.00 | 0.00 | 34 | 1018.6 |
| 20260501232135 | 53 | 59 | 1.7 | 7.8 | 0.00 | 0.00 | 0.00 | 35 | 1018.7 |
| 20260501232018 | 53 | 59 | 1.7 | 7.8 | 0.00 | 0.00 | 0.00 | 35 | 1018.6 |
| 20260501231922 | 53 | 59 | 2.6 | 7.8 | 0.00 | 0.00 | 0.00 | 35 | 1018.7 |
| 20260501231806 | 53 | 59 | 2.6 | 7.8 | 0.00 | 0.00 | 0.00 | 35 | 1018.7 |
| 20260501231713 | 53 | 57 | 3.5 | 7.8 | 0.00 | 0.00 | 0.00 | 34 | 1018.7 |
| 20260501231617 | 53 | 69 | 4.3 | 7.8 | 0.00 | 0.00 | 0.00 | 34 | 1018.8 |
| 20260501231521 | 53 | 67 | 5.2 | 7.8 | 0.00 | 0.00 | 0.00 | 37 | 1018.7 |
| 20260501231442 | 53 | 72 | 4.3 | 7.8 | 0.00 | 0.00 | 0.00 | 36 | 1018.8 |
| 20260501231322 | 53 | 70 | 3.5 | 9.6 | 0.00 | 0.00 | 0.00 | 35 | 1018.8 |
| 20260501231224 | 53 | 60 | 3.5 | 9.6 | 0.00 | 0.00 | 0.00 | 37 | 1018.8 |
| 20260501231109 | 53 | 59 | 2.6 | 9.6 | 0.00 | 0.00 | 0.00 | 36 | 1018.8 |
| 20260501231011 | 54 | 61 | 2.6 | 10.4 | 0.00 | 0.00 | 0.00 | 36 | 1018.9 |
| 20260501230913 | 54 | 61 | 4.3 | 10.4 | 0.00 | 0.00 | 0.00 | 36 | 1018.8 |
| 20260501230813 | 54 | 44 | 4.3 | 10.4 | 0.00 | 0.00 | 0.00 | 35 | 1018.8 |
| 20260501230718 | 54 | 53 | 5.2 | 10.4 | 0.00 | 0.00 | 0.00 | 36 | 1018.8 |
| 20260501230619 | 54 | 25 | 6.1 | 10.4 | 0.00 | 0.00 | 0.00 | 34 | 1018.8 |
| 20260501230508 | 54 | 25 | 6.1 | 10.4 | 0.00 | 0.00 | 0.00 | 35 | 1018.9 |
| 20260501230429 | 54 | 14 | 6.1 | 10.4 | 0.00 | 0.00 | 0.00 | 36 | 1018.8 |
| 20260501230312 | 54 | 33 | 6.1 | 11.3 | 0.00 | 0.00 | 0.00 | 35 | 1018.8 |
| 20260501230213 | 54 | 9 | 6.1 | 11.3 | 0.00 | 0.00 | 0.00 | 36 | 1018.8 |
| 20260501230118 | 54 | 313 | 5.2 | 11.3 | 0.00 | 0.00 | 0.00 | 35 | 1018.8 |
| 20260501230016 | 54 | 336 | 5.2 | 11.3 | 0.00 | 0.00 | 0.00 | 35 | 1018.9 |
| 20260501225918 | 54 | 5 | 6.1 | 11.3 | 0.00 | 0.00 | 0.00 | 34 | 1018.8 |
| 20260501225826 | 54 | 13 | 6.1 | 11.3 | 0.00 | 0.00 | 0.00 | 34 | 1018.8 |
| 20260501225703 | 54 | 350 | 6.1 | 11.3 | 0.00 | 0.00 | 0.00 | 35 | 1018.8 |
| 20260501225607 | 54 | 30 | 7.8 | 11.3 | 0.00 | 0.00 | 0.00 | 36 | 1018.9 |
| 20260501225510 | 54 | 360 | 7.8 | 11.3 | 0.00 | 0.00 | 0.00 | 36 | 1018.8 |
| 20260501225410 | 54 | 326 | 7.0 | 10.4 | 0.00 | 0.00 | 0.00 | 35 | 1018.8 |
| 20260501225331 | 54 | 17 | 7.0 | 10.4 | 0.00 | 0.00 | 0.00 | 35 | 1018.8 |
| 20260501225212 | 54 | 24 | 7.0 | 11.3 | 0.00 | 0.00 | 0.00 | 34 | 1018.8 |
| 20260501225120 | 54 | 336 | 6.1 | 11.3 | 0.00 | 0.00 | 0.00 | 36 | 1018.8 |
| 20260501225021 | 54 | 5 | 6.1 | 11.3 | 0.00 | 0.00 | 0.00 | 35 | 1018.7 |
| 20260501224923 | 54 | 343 | 7.8 | 11.3 | 0.00 | 0.00 | 0.00 | 36 | 1018.9 |
| 20260501224825 | 54 | 355 | 7.0 | 11.3 | 0.00 | 0.00 | 0.00 | 36 | 1018.8 |
| 20260501224706 | 54 | 12 | 7.0 | 11.3 | 0.00 | 0.00 | 0.00 | 36 | 1018.8 |
| 20260501224627 | 54 | 360 | 7.0 | 11.3 | 0.00 | 0.00 | 0.00 | 37 | 1018.8 |
| 20260501224515 | 53 | 12 | 7.0 | 11.3 | 0.00 | 0.00 | 0.00 | 37 | 1018.8 |
| 20260501224416 | 53 | 27 | 7.0 | 11.3 | 0.00 | 0.00 | 0.00 | 36 | 1018.8 |
| 20260501224317 | 53 | 355 | 6.1 | 10.4 | 0.00 | 0.00 | 0.00 | 37 | 1018.8 |
| 20260501224218 | 53 | 10 | 7.0 | 10.4 | 0.00 | 0.00 | 0.00 | 37 | 1018.8 |
| 20260501224140 | 53 | 334 | 7.0 | 10.4 | 0.00 | 0.00 | 0.00 | 36 | 1018.8 |
| 20260501224020 | 53 | 335 | 6.1 | 9.6 | 0.00 | 0.00 | 0.00 | 36 | 1018.8 |
| 20260501223918 | 53 | 342 | 7.0 | 9.6 | 0.00 | 0.00 | 0.00 | 36 | 1018.9 |
| 20260501223804 | 54 | 326 | 6.1 | 9.6 | 0.00 | 0.00 | 0.00 | 37 | 1018.8 |
| 20260501223708 | 54 | 22 | 5.2 | 9.6 | 0.00 | 0.00 | 0.00 | 37 | 1018.8 |
| 20260501223612 | 54 | 335 | 5.2 | 9.6 | 0.00 | 0.00 | 0.00 | 37 | 1018.7 |
| 20260501223517 | 54 | 360 | 5.2 | 9.6 | 0.00 | 0.00 | 0.00 | 36 | 1018.8 |
| 20260501223439 | 54 | 355 | 5.2 | 13.0 | 0.00 | 0.00 | 0.00 | 37 | 1018.9 |
| 20260501223322 | 54 | 11 | 4.3 | 13.0 | 0.00 | 0.00 | 0.00 | 36 | 1018.8 |
| 20260501223243 | 54 | 5 | 5.2 | 13.0 | 0.00 | 0.00 | 0.00 | 37 | 1018.8 |
| 20260501223111 | 54 | 360 | 7.0 | 13.0 | 0.00 | 0.00 | 0.00 | 38 | 1018.9 |
| 20260501223015 | 54 | 360 | 6.1 | 13.0 | 0.00 | 0.00 | 0.00 | 37 | 1018.9 |
| 20260501222920 | 54 | 11 | 5.2 | 13.0 | 0.00 | 0.00 | 0.00 | 35 | 1018.8 |
| 20260501222823 | 54 | 36 | 5.2 | 13.0 | 0.00 | 0.00 | 0.00 | 35 | 1018.8 |
| 20260501222722 | 54 | 53 | 7.8 | 13.9 | 0.00 | 0.00 | 0.00 | 35 | 1018.9 |
| 20260501222643 | 54 | 355 | 8.7 | 13.9 | 0.00 | 0.00 | 0.00 | 35 | 1018.9 |
| 20260501222511 | 54 | 347 | 7.8 | 13.9 | 0.00 | 0.00 | 0.00 | 35 | 1018.8 |
| 20260501222412 | 54 | 346 | 7.8 | 13.9 | 0.00 | 0.00 | 0.00 | 36 | 1018.8 |
| 20260501222314 | 54 | 13 | 7.0 | 13.9 | 0.00 | 0.00 | 0.00 | 36 | 1018.8 |
| 20260501222236 | 54 | 355 | 7.8 | 13.9 | 0.00 | 0.00 | 0.00 | 36 | 1018.8 |
| 20260501222136 | 54 | 5 | 9.6 | 13.9 | 0.00 | 0.00 | 0.00 | 37 | 1018.8 |
| 20260501222036 | 54 | 11 | 9.6 | 13.9 | 0.00 | 0.00 | 0.00 | 36 | 1018.9 |
| 20260501221916 | 54 | 47 | 7.8 | 13.0 | 0.00 | 0.00 | 0.00 | 37 | 1019.1 |
| 20260501221820 | 54 | 71 | 7.0 | 10.4 | 0.00 | 0.00 | 0.00 | 35 | 1018.8 |
| 20260501221740 | 54 | 355 | 6.1 | 11.3 | 0.00 | 0.00 | 0.00 | 35 | 1018.9 |
| 20260501221605 | 54 | 28 | 4.3 | 11.3 | 0.00 | 0.00 | 0.00 | 36 | 1018.8 |
| 20260501221509 | 54 | 30 | 5.2 | 11.3 | 0.00 | 0.00 | 0.00 | 36 | 1018.8 |
| 20260501221409 | 54 | 23 | 5.2 | 11.3 | 0.00 | 0.00 | 0.00 | 37 | 1018.8 |
| 20260501221313 | 54 | 347 | 4.3 | 11.3 | 0.00 | 0.00 | 0.00 | 37 | 1018.8 |
| 20260501221218 | 54 | 22 | 4.3 | 11.3 | 0.00 | 0.00 | 0.00 | 36 | 1018.7 |
| 20260501221118 | 54 | 360 | 6.1 | 11.3 | 0.00 | 0.00 | 0.00 | 37 | 1018.8 |
| 20260501221006 | 54 | 65 | 6.1 | 11.3 | 0.00 | 0.00 | 0.00 | 37 | 1018.9 |
| 20260501220931 | 54 | 79 | 6.1 | 11.3 | 0.00 | 0.00 | 0.00 | 37 | 1018.9 |
| 20260501220815 | 54 | 32 | 4.3 | 10.4 | 0.00 | 0.00 | 0.00 | 37 | 1018.8 |
| 20260501220718 | 53 | 5 | 3.5 | 10.4 | 0.00 | 0.00 | 0.00 | 38 | 1018.9 |
| 20260501220622 | 53 | 26 | 3.5 | 10.4 | 0.00 | 0.00 | 0.00 | 38 | 1018.9 |
| 20260501220507 | 53 | 17 | 6.1 | 10.4 | 0.00 | 0.00 | 0.00 | 39 | 1018.7 |
| 20260501220415 | 53 | 355 | 7.0 | 10.4 | 0.00 | 0.00 | 0.00 | 37 | 1018.8 |
| 20260501220315 | 54 | 20 | 7.0 | 10.4 | 0.00 | 0.00 | 0.00 | 36 | 1018.9 |
| 20260501220216 | 54 | 13 | 5.2 | 9.6 | 0.00 | 0.00 | 0.00 | 36 | 1018.8 |
| 20260501220022 | 54 | 5 | 3.5 | 8.7 | 0.00 | 0.00 | 0.00 | 37 | 1018.8 |
| 20260501215907 | 54 | 57 | 3.5 | 8.7 | 0.00 | 0.00 | 0.00 | 36 | 1018.8 |
| 20260501215812 | 54 | 58 | 5.2 | 8.7 | 0.00 | 0.00 | 0.00 | 38 | 1018.8 |
| 20260501215733 | 54 | 37 | 5.2 | 8.7 | 0.00 | 0.00 | 0.00 | 36 | 1018.9 |
| 20260501215614 | 54 | 5 | 4.3 | 8.7 | 0.00 | 0.00 | 0.00 | 37 | 1018.8 |
| 20260501215518 | 54 | 71 | 3.5 | 8.7 | 0.00 | 0.00 | 0.00 | 38 | 1018.7 |
| 20260501215403 | 54 | 72 | 4.3 | 8.7 | 0.00 | 0.00 | 0.00 | 37 | 1018.8 |
| 20260501215308 | 54 | 42 | 4.3 | 8.7 | 0.00 | 0.00 | 0.00 | 37 | 1018.7 |
| 20260501215216 | 54 | 74 | 3.5 | 8.7 | 0.00 | 0.00 | 0.00 | 36 | 1018.7 |
| 20260501215121 | 55 | 68 | 2.6 | 8.7 | 0.00 | 0.00 | 0.00 | 38 | 1018.8 |
| 20260501215026 | 55 | 73 | 3.5 | 8.7 | 0.00 | 0.00 | 0.00 | 39 | 1018.9 |
| 20260501214903 | 55 | 79 | 2.6 | 8.7 | 0.00 | 0.00 | 0.00 | 37 | 1018.8 |
| 20260501214808 | 54 | 28 | 3.5 | 8.7 | 0.00 | 0.00 | 0.00 | 40 | 1018.9 |
| 20260501214731 | 54 | 355 | 3.5 | 9.6 | 0.00 | 0.00 | 0.00 | 40 | 1018.8 |
| 20260501214615 | 54 | 52 | 2.6 | 9.6 | 0.00 | 0.00 | 0.00 | 41 | 1018.8 |
| 20260501214503 | 54 | 67 | 2.6 | 9.6 | 0.00 | 0.00 | 0.00 | 41 | 1018.8 |
| 20260501214427 | 54 | 77 | 3.5 | 11.3 | 0.00 | 0.00 | 0.00 | 39 | 1018.8 |
| 20260501214329 | 54 | 45 | 4.3 | 12.2 | 0.00 | 0.00 | 0.00 | 37 | 1018.9 |
| 20260501214205 | 53 | 11 | 3.5 | 12.2 | 0.00 | 0.00 | 0.00 | 40 | 1018.8 |
| 20260501214109 | 53 | 28 | 3.5 | 12.2 | 0.00 | 0.00 | 0.00 | 39 | 1018.8 |
| 20260501214014 | 53 | 50 | 5.2 | 13.9 | 0.00 | 0.00 | 0.00 | 39 | 1018.9 |
| 20260501213938 | 53 | 44 | 6.1 | 13.9 | 0.00 | 0.00 | 0.00 | 40 | 1018.9 |
| 20260501213825 | 53 | 34 | 5.2 | 13.9 | 0.00 | 0.00 | 0.00 | 41 | 1018.8 |
| 20260501213728 | 53 | 30 | 6.1 | 13.9 | 0.00 | 0.00 | 0.00 | 42 | 1018.8 |
| 20260501213611 | 52 | 56 | 7.8 | 13.9 | 0.00 | 0.00 | 0.00 | 40 | 1019.0 |
| 20260501213516 | 53 | 49 | 7.8 | 13.9 | 0.00 | 0.00 | 0.00 | 38 | 1018.9 |
| 20260501213418 | 53 | 5 | 6.1 | 13.9 | 0.00 | 0.00 | 0.00 | 40 | 1018.9 |
| 20260501213303 | 53 | 348 | 7.8 | 13.9 | 0.00 | 0.00 | 0.00 | 39 | 1018.8 |
| 20260501213213 | 53 | 349 | 7.8 | 13.9 | 0.00 | 0.00 | 0.00 | 38 | 1018.8 |
| 20260501213118 | 53 | 74 | 6.1 | 10.4 | 0.00 | 0.00 | 0.00 | 37 | 1018.8 |
| 20260501213020 | 53 | 360 | 5.2 | 8.7 | 0.00 | 0.00 | 0.00 | 37 | 1018.9 |
| 20260501212942 | 53 | 360 | 5.2 | 8.7 | 0.00 | 0.00 | 0.00 | 38 | 1018.8 |
| 20260501212806 | 53 | 44 | 6.1 | 8.7 | 0.00 | 0.00 | 0.00 | 38 | 1018.8 |
| 20260501212711 | 53 | 5 | 4.3 | 10.4 | 0.00 | 0.00 | 0.00 | 39 | 1018.9 |
| 20260501212616 | 53 | 41 | 5.2 | 12.2 | 0.00 | 0.00 | 0.00 | 38 | 1018.9 |
| 20260501212525 | 53 | 16 | 6.1 | 12.2 | 0.00 | 0.00 | 0.00 | 37 | 1018.9 |
| 20260501212405 | 53 | 31 | 5.2 | 12.2 | 0.00 | 0.00 | 0.00 | 38 | 1018.9 |
| 20260501212311 | 54 | 13 | 4.3 | 12.2 | 0.00 | 0.00 | 0.00 | 36 | 1018.9 |
| 20260501212217 | 54 | 47 | 5.2 | 12.2 | 0.00 | 0.00 | 0.00 | 37 | 1018.9 |
| 20260501212119 | 54 | 22 | 6.1 | 12.2 | 0.00 | 0.00 | 0.00 | 37 | 1018.9 |
| 20260501212009 | 54 | 67 | 6.1 | 12.2 | 0.00 | 0.00 | 0.00 | 36 | 1018.9 |
| 20260501211910 | 54 | 19 | 7.8 | 12.2 | 0.00 | 0.00 | 0.00 | 37 | 1018.9 |
| 20260501211835 | 54 | 46 | 7.0 | 12.2 | 0.00 | 0.00 | 0.00 | 38 | 1019.0 |
| 20260501211720 | 54 | 42 | 4.3 | 8.7 | 0.00 | 0.00 | 0.00 | 38 | 1018.9 |
| 20260501211605 | 55 | 65 | 3.5 | 9.6 | 0.00 | 0.00 | 0.00 | 40 | 1018.9 |
| 20260501211511 | 55 | 73 | 4.3 | 10.4 | 0.00 | 0.00 | 0.00 | 37 | 1019.0 |
| 20260501211415 | 55 | 75 | 6.1 | 11.3 | 0.00 | 0.00 | 0.00 | 37 | 1019.0 |
| 20260501211343 | 55 | 360 | 5.2 | 11.3 | 0.00 | 0.00 | 0.00 | 39 | 1018.9 |
| 20260501211206 | 54 | 64 | 5.2 | 11.3 | 0.00 | 0.00 | 0.00 | 38 | 1019.0 |
| 20260501211110 | 54 | 297 | 5.2 | 15.6 | 0.00 | 0.00 | 0.00 | 39 | 1019.0 |
| 20260501211011 | 54 | 355 | 5.2 | 15.6 | 0.00 | 0.00 | 0.00 | 39 | 1019.0 |
| 20260501210933 | 54 | 355 | 6.1 | 15.6 | 0.00 | 0.00 | 0.00 | 39 | 1019.0 |
| 20260501210813 | 54 | 34 | 7.0 | 15.6 | 0.00 | 0.00 | 0.00 | 38 | 1019.1 |
| 20260501210736 | 54 | 23 | 7.0 | 15.6 | 0.00 | 0.00 | 0.00 | 38 | 1019.0 |
| 20260501210619 | 54 | 360 | 8.7 | 15.6 | 0.00 | 0.00 | 0.00 | 39 | 1019.1 |
| 20260501210505 | 54 | 11 | 9.6 | 15.6 | 0.00 | 0.00 | 0.00 | 38 | 1019.1 |
| 20260501210408 | 54 | 32 | 9.6 | 15.6 | 0.00 | 0.00 | 0.00 | 40 | 1019.2 |
| 20260501210310 | 54 | 14 | 9.6 | 15.6 | 0.00 | 0.00 | 0.00 | 41 | 1019.1 |
| 20260501210212 | 54 | 26 | 7.0 | 13.0 | 0.00 | 0.00 | 0.00 | 39 | 1019.1 |
| 20260501210135 | 54 | 15 | 5.2 | 13.0 | 0.00 | 0.00 | 0.00 | 39 | 1019.1 |
| 20260501210016 | 54 | 86 | 3.5 | 13.0 | 0.00 | 0.00 | 0.00 | 37 | 1019.1 |
| 20260501205919 | 54 | 76 | 1.7 | 13.0 | 0.00 | 0.00 | 0.00 | 35 | 1019.1 |
| 20260501205803 | 54 | 79 | 4.3 | 13.0 | 0.00 | 0.00 | 0.00 | 38 | 1019.1 |
| 20260501205706 | 54 | 51 | 7.0 | 13.0 | 0.00 | 0.00 | 0.00 | 36 | 1019.1 |
| 20260501205609 | 55 | 57 | 7.8 | 13.0 | 0.00 | 0.00 | 0.00 | 39 | 1019.2 |
| 20260501205513 | 55 | 34 | 7.8 | 13.0 | 0.00 | 0.00 | 0.00 | 39 | 1019.2 |
| 20260501205415 | 55 | 52 | 5.2 | 13.0 | 0.00 | 0.00 | 0.00 | 42 | 1019.1 |
| 20260501205338 | 55 | 56 | 3.5 | 10.4 | 0.00 | 0.00 | 0.00 | 40 | 1019.0 |
| 20260501205204 | 54 | 53 | 4.3 | 10.4 | 0.00 | 0.00 | 0.00 | 38 | 1019.1 |
| 20260501205127 | 54 | 53 | 4.3 | 10.4 | 0.00 | 0.00 | 0.00 | 39 | 1019.2 |
| 20260501205005 | 54 | 53 | 7.0 | 10.4 | 0.00 | 0.00 | 0.00 | 38 | 1019.2 |
| 20260501204907 | 54 | 53 | 6.1 | 12.2 | 0.00 | 0.00 | 0.00 | 40 | 1019.1 |
| 20260501204810 | 54 | 60 | 6.1 | 13.0 | 0.00 | 0.00 | 0.00 | 38 | 1019.2 |
| 20260501204713 | 54 | 329 | 6.1 | 13.0 | 0.00 | 0.00 | 0.00 | 38 | 1019.2 |
| 20260501204617 | 54 | 322 | 5.2 | 13.0 | 0.00 | 0.00 | 0.00 | 36 | 1019.1 |
| 20260501204504 | 54 | 329 | 4.3 | 13.0 | 0.00 | 0.00 | 0.00 | 42 | 1019.1 |
| 20260501204407 | 54 | 44 | 5.2 | 13.0 | 0.00 | 0.00 | 0.00 | 39 | 1019.1 |
| 20260501204310 | 54 | 20 | 7.0 | 13.0 | 0.00 | 0.00 | 0.00 | 38 | 1019.1 |
| 20260501204233 | 54 | 56 | 8.7 | 13.0 | 0.00 | 0.00 | 0.00 | 38 | 1019.2 |
| 20260501204115 | 54 | 355 | 10.4 | 13.0 | 0.00 | 0.00 | 0.00 | 38 | 1019.2 |
| 20260501204018 | 54 | 5 | 8.7 | 13.0 | 0.00 | 0.00 | 0.00 | 39 | 1019.2 |
| 20260501203905 | 53 | 349 | 5.2 | 12.2 | 0.00 | 0.00 | 0.00 | 40 | 1019.1 |
| 20260501203808 | 53 | 346 | 4.3 | 8.7 | 0.00 | 0.00 | 0.00 | 39 | 1019.3 |
| 20260501203712 | 53 | 355 | 5.2 | 8.7 | 0.00 | 0.00 | 0.00 | 39 | 1019.1 |
| 20260501203614 | 53 | 301 | 3.5 | 8.7 | 0.00 | 0.00 | 0.00 | 40 | 1019.1 |
| 20260501203517 | 53 | 279 | 1.7 | 8.7 | 0.00 | 0.00 | 0.00 | 41 | 1019.1 |
| 20260501203420 | 53 | 18 | 2.6 | 8.7 | 0.00 | 0.00 | 0.00 | 38 | 1019.1 |
| 20260501203327 | 53 | 330 | 4.3 | 9.6 | 0.00 | 0.00 | 0.00 | 38 | 1019.1 |
| 20260501203203 | 53 | 276 | 5.2 | 10.4 | 0.00 | 0.00 | 0.00 | 44 | 1019.1 |
| 20260501203126 | 53 | 300 | 5.2 | 10.4 | 0.00 | 0.00 | 0.00 | 44 | 1019.2 |
| 20260501203003 | 52 | 296 | 5.2 | 10.4 | 0.00 | 0.00 | 0.00 | 41 | 1019.3 |
| 20260501202908 | 52 | 300 | 4.3 | 11.3 | 0.00 | 0.00 | 0.00 | 37 | 1019.2 |
| 20260501202811 | 52 | 66 | 5.2 | 11.3 | 0.00 | 0.00 | 0.00 | 38 | 1019.2 |
| 20260501202732 | 52 | 34 | 5.2 | 11.3 | 0.00 | 0.00 | 0.00 | 41 | 1019.3 |
| 20260501202617 | 52 | 19 | 5.2 | 11.3 | 0.00 | 0.00 | 0.00 | 41 | 1019.3 |
| 20260501202540 | 52 | 47 | 7.0 | 11.3 | 0.00 | 0.00 | 0.00 | 39 | 1019.3 |
| 20260501202403 | 52 | 31 | 8.7 | 11.3 | 0.00 | 0.00 | 0.00 | 39 | 1019.3 |
| 20260501202326 | 52 | 35 | 7.0 | 11.3 | 0.00 | 0.00 | 0.00 | 39 | 1019.3 |
| 20260501202203 | 52 | 38 | 7.0 | 11.3 | 0.00 | 0.00 | 0.00 | 40 | 1019.4 |
| 20260501202107 | 52 | 25 | 7.8 | 11.3 | 0.00 | 0.00 | 0.00 | 40 | 1019.4 |
| 20260501202015 | 52 | 45 | 7.8 | 11.3 | 0.00 | 0.00 | 0.00 | 39 | 1019.4 |
| 20260501201915 | 52 | 40 | 7.0 | 11.3 | 0.00 | 0.00 | 0.00 | 41 | 1019.4 |
| 20260501201817 | 52 | 21 | 7.0 | 11.3 | 0.00 | 0.00 | 0.00 | 41 | 1019.3 |
| 20260501201722 | 52 | 351 | 7.8 | 11.3 | 0.00 | 0.00 | 0.00 | 42 | 1019.2 |
| 20260501201625 | 51 | 39 | 8.7 | 11.3 | 0.00 | 0.00 | 0.00 | 42 | 1019.4 |
| 20260501201529 | 51 | 15 | 7.8 | 11.3 | 0.00 | 0.00 | 0.00 | 42 | 1019.3 |
| 20260501201431 | 51 | 12 | 5.2 | 11.3 | 0.00 | 0.00 | 0.00 | 42 | 1019.3 |
| 20260501201334 | 51 | 34 | 4.3 | 10.4 | 0.00 | 0.00 | 0.00 | 43 | 1019.3 |
| 20260501201236 | 51 | 25 | 5.2 | 10.4 | 0.00 | 0.00 | 0.00 | 41 | 1019.4 |
| 20260501201122 | 51 | 52 | 5.2 | 10.4 | 0.00 | 0.00 | 0.00 | 41 | 1019.3 |
| 20260501201026 | 51 | 12 | 7.0 | 10.4 | 0.00 | 0.00 | 0.00 | 42 | 1019.3 |